GFSFLT1_sfc_dewp_000.txt.gz
Dewpoint
32 32 32 33 38 42 41 44 47 45 42 41 40 39 39 43 43 44 48 49 49 48 46 46 45 42 41 39 38 39 38 37
32 33 35 37 38 35 34 36 37 37 37 37 37 37 36 37 39 41 43 47 48 48 46 45 46 43 41 40 39 38 37 38
31 32 34 34 35 35 32 31 32 33 34 34 35 34 35 35 36 37 39 41 45 47 46 43 43 44 41 40 39 38 37 38
30 30 30 30 31 32 32 32 32 34 35 35 35 35 36 35 35 36 36 39 41 45 45 44 42 43 42 41 39 38 36 38
31 30 30 30 30 32 33 34 35 35 37 36 36 35 35 36 37 37 37 39 39 40 44 45 42 41 42 42 40 39 36 35
28 28 29 32 35 35 39 39 38 38 38 38 38 37 39 40 40 40 40 40 39 39 40 41 42 41 41 40 39 38 35 34
31 33 36 37 38 38 38 37 37 38 38 37 36 35 36 37 36 38 40 40 38 37 39 39 37 36 34 34 34 32 32 33
31 34 36 37 37 38 38 37 37 37 38 33 32 34 34 34 34 36 37 37 34 34 34 35 36 37 38 38 37 37 37 38
37 37 36 36 37 37 38 38 37 39 37 31 33 35 36 35 35 35 36 33 34 37 38 38 38 39 39 39 39 40 40 40
35 37 37 37 38 39 39 39 39 40 37 32 34 36 35 34 34 34 34 34 37 38 38 38 38 40 41 40 39 38 38 38
37 37 38 39 39 39 39 39 39 40 33 34 34 34 34 34 33 33 32 34 37 37 37 36 37 35 36 38 39 39 38 37
35 37 39 39 39 39 39 39 39 40 32 34 34 34 34 32 31 32 33 35 34 32 33 33 34 35 35 35 35 34 33 32
36 38 39 39 39 39 40 39 40 35 35 34 33 32 29 29 30 30 31 30 30 30 31 31 31 31 31 31 30 29 28 27
37 39 39 39 39 39 40 39 37 36 35 34 29 26 26 28 29 32 34 34 33 32 30 30 31 31 29 28 27 27 26 26
38 39 39 39 39 40 39 38 37 36 36 33 31 30 28 30 35 36 35 35 33 33 32 32 31 27 25 25 25 25 24 23
38 39 39 38 39 40 38 37 36 37 37 37 35 36 37 36 36 37 37 36 36 37 35 28 26 24 22 26 24 23 23 23
39 38 37 39 39 38 37 35 36 38 37 37 38 39 37 37 37 37 37 36 36 37 29 24 23 22 30 27 28 26 25 24
35 34 36 38 37 36 35 35 36 36 34 29 30 31 33 35 35 35 33 28 25 23 22 23 24 25 28 28 27 25 25 24
36 34 35 36 35 34 33 31 30 27 27 30 31 30 27 26 24 23 23 21 20 20 22 25 24 22 25 25 25 24 23 23

GFSFLT1_sfc_dewp_003.txt.gz
Dewpoint
34 35 37 42 47 48 51 51 52 53 50 48 45 45 45 46 46 47 49 50 53 54 53 53 53 50 50 48 47 43 40 40
34 37 38 41 45 47 47 46 47 45 41 41 41 41 40 41 40 43 44 44 48 51 50 51 52 50 49 49 46 45 41 42
35 37 39 43 44 44 41 39 39 38 38 40 41 41 40 40 41 43 43 44 44 44 48 48 49 48 50 50 48 44 42 43
33 34 38 40 40 40 37 38 40 42 42 39 40 41 40 38 36 37 39 43 43 44 45 45 47 48 47 49 49 47 42 42
32 34 35 37 39 42 43 42 40 40 41 39 39 36 35 37 38 37 39 42 43 42 43 44 45 46 47 47 47 48 46 42
34 36 39 40 42 43 43 41 41 41 39 39 39 40 39 39 38 39 39 40 42 41 41 42 43 43 44 46 46 46 44 43
35 39 39 39 41 43 43 41 41 42 40 39 40 41 41 39 39 38 37 38 39 39 39 41 40 40 40 40 40 41 40 39
39 38 38 39 40 42 41 41 40 42 42 38 40 42 42 39 38 37 37 36 37 38 39 40 39 40 40 40 41 41 40 40
39 38 39 40 41 41 41 40 40 42 43 39 40 41 39 37 38 38 37 36 37 39 39 39 40 41 41 41 41 41 40 39
37 38 40 41 41 42 43 41 40 42 43 39 41 40 38 38 38 37 36 37 38 39 41 39 39 39 39 38 38 37 38 38
37 38 40 41 41 42 43 42 40 41 42 39 38 38 37 36 35 36 36 38 39 37 35 34 34 34 34 35 35 36 36 36
37 38 39 41 42 41 41 42 40 41 38 38 38 37 34 33 34 35 36 37 34 33 32 33 34 35 34 34 34 32 30 30
38 38 40 41 41 40 41 42 41 38 37 37 37 33 30 32 34 35 37 36 34 33 32 34 35 32 34 31 29 27 25 24
38 39 40 41 39 41 41 41 39 37 37 37 34 33 31 32 37 38 38 37 36 36 37 35 33 30 28 26 25 25 25 26
39 40 39 38 39 40 40 39 37 37 38 37 37 36 36 37 38 38 38 36 35 34 35 36 33 26 23 23 23 25 24 23
40 38 36 36 38 39 38 36 37 39 38 37 37 39 38 37 34 32 33 34 35 35 36 33 26 23 18 25 24 23 23 23
37 37 36 36 38 37 35 35 37 37 34 30 30 30 30 31 32 33 32 29 25 25 24 23 24 21 31 27 28 25 24 23
35 34 35 36 38 35 33 34 35 32 28 28 31 32 28 25 24 23 23 23 23 22 22 23 24 25 26 26 26 22 22 22
33 32 35 38 36 33 32 31 29 27 28 32 32 28 23 23 23 22 21 21 21 20 23 24 21 19 23 24 24 23 24 23

GFSFLT1_sfc_dewp_006.txt.gz
Dewpoint
43 40 40 44 50 54 54 49 49 51 51 50 45 45 46 45 43 42 44 44 47 49 48 50 51 50 49 47 49 47 45 44
36 38 40 45 52 51 48 48 46 44 42 40 40 40 41 42 41 45 46 45 45 47 45 47 48 47 48 51 50 49 48 46
36 39 43 44 46 46 43 40 42 41 40 42 43 44 42 43 41 43 42 42 41 40 44 43 44 44 46 48 49 48 47 47
35 38 41 43 43 43 41 42 42 43 42 40 41 42 40 39 39 37 38 40 39 41 42 43 44 44 42 44 46 46 44 46
34 35 40 42 45 45 43 42 42 41 43 41 43 39 38 40 40 38 38 38 38 39 40 43 44 43 43 42 40 44 44 43
38 39 40 41 44 45 45 43 42 42 41 43 41 42 40 40 39 38 37 36 38 38 41 42 43 42 43 45 45 45 44 44
38 39 40 41 44 45 44 41 41 42 42 42 43 44 42 39 37 35 34 35 35 38 39 42 43 42 42 42 43 44 43 43
38 38 38 41 42 43 41 40 39 41 42 40 40 41 41 39 38 35 36 34 35 38 41 41 40 40 40 42 42 42 40 40
37 37 39 40 42 43 42 40 38 38 39 38 38 41 41 38 37 37 36 36 38 41 40 40 40 40 40 41 41 40 39 40
37 37 39 41 42 41 44 42 39 39 41 42 42 42 40 39 38 37 36 39 37 40 41 38 35 36 37 37 37 37 37 37
37 37 38 40 42 44 45 44 41 42 42 42 40 39 38 37 37 37 38 38 40 37 35 34 35 36 38 38 38 37 36 35
37 38 39 40 42 42 42 42 42 41 40 39 39 38 36 36 36 37 37 38 35 34 33 35 35 37 39 39 37 35 30 29
37 38 40 41 42 41 41 41 39 39 37 36 37 36 35 35 36 37 37 37 37 36 37 38 38 37 35 32 32 29 27 25
36 38 40 40 39 38 38 39 38 36 35 34 34 36 36 36 37 37 38 38 37 38 36 35 35 34 33 30 26 25 26 26
38 40 40 37 36 37 38 38 37 36 35 34 35 36 38 38 38 36 35 33 32 31 30 29 30 26 24 23 22 24 24 23
39 38 37 36 35 36 37 37 35 37 35 33 33 33 32 31 31 29 28 27 23 23 22 23 23 22 18 26 22 24 24 24
37 35 34 31 31 36 36 32 33 36 33 31 30 31 29 28 27 26 23 22 22 22 22 22 23 18 28 27 27 24 22 21
36 34 29 31 35 38 32 30 33 34 31 29 30 31 26 25 22 19 20 22 23 23 23 23 24 23 24 24 25 21 21 21
32 30 29 32 36 33 32 30 31 31 30 29 30 27 23 21 20 20 22 22 22 22 23 23 22 19 24 23 23 22 23 23

GFSFLT1_sfc_dewp_009.txt.gz
Dewpoint
41 46 44 44 44 47 50 52 44 47 48 49 43 43 44 44 43 43 46 45 48 48 47 50 50 47 48 50 53 50 51 50
43 41 42 45 50 49 49 48 48 45 43 42 40 41 42 43 42 45 46 44 43 44 42 43 46 44 47 50 50 50 49 50
37 41 43 46 49 49 46 44 42 41 41 43 45 45 43 43 43 43 42 43 42 41 42 41 42 41 47 49 50 47 47 49
37 40 44 45 45 44 43 43 43 44 43 41 41 41 42 40 41 41 41 42 39 39 40 41 45 44 42 47 46 46 43 45
34 38 41 45 45 45 44 43 42 42 45 42 44 41 40 41 42 41 39 39 37 36 38 40 43 43 44 44 39 46 45 42
37 39 41 43 45 46 45 43 42 43 42 43 43 44 43 43 42 41 42 38 38 36 37 41 43 41 43 45 44 43 42 41
38 39 40 42 45 45 45 42 40 42 44 44 45 45 43 40 39 38 36 37 35 37 36 41 42 42 42 41 42 43 43 42
37 37 38 41 42 42 43 41 40 41 43 42 41 40 42 41 39 37 37 34 35 39 40 41 40 40 41 43 44 41 41 41
37 38 39 40 41 42 44 43 41 40 42 42 43 42 41 39 39 37 36 36 37 39 40 40 40 41 41 41 39 40 39 40
35 37 38 39 41 42 44 43 42 42 43 43 43 41 40 39 38 38 36 38 36 38 39 37 40 38 40 39 39 39 39 39
36 37 38 39 40 42 44 44 41 41 42 41 39 39 39 37 37 37 37 37 37 37 38 38 38 39 38 38 38 37 37 37
36 37 38 40 40 41 42 41 41 39 39 38 38 38 37 36 35 36 37 39 37 37 38 38 38 37 39 39 37 36 36 36
36 36 38 39 40 40 39 40 39 37 36 36 35 34 34 34 35 36 38 36 38 37 37 37 37 37 37 36 36 34 30 29
37 38 38 39 39 39 39 38 37 37 35 33 32 32 33 34 34 34 34 33 32 32 31 31 28 28 26 25 24 25 26 26
37 37 37 37 38 37 34 35 36 35 33 31 32 33 32 32 32 31 29 27 25 23 23 22 23 21 21 21 22 24 23 21
37 37 37 35 33 31 32 35 35 33 33 31 32 31 31 30 29 27 26 25 22 21 22 22 23 21 19 25 24 23 23 23
38 34 32 30 28 30 32 34 32 32 32 31 30 30 31 30 27 25 22 22 21 22 22 22 23 17 27 25 24 22 20 20
36 33 30 30 28 29 32 31 31 30 30 29 28 30 31 27 24 19 19 21 23 22 22 21 22 23 24 24 25 22 21 21
32 31 29 27 26 27 32 31 29 29 28 27 28 30 29 25 22 19 20 21 22 21 22 23 23 21 28 25 24 22 22 21

GFSFLT1_sfc_dewp_012.txt.gz
Dewpoint
40 42 47 48 51 51 54 58 55 53 55 53 51 50 51 51 52 50 51 51 50 51 49 51 52 49 49 50 50 49 49 49
43 47 49 51 53 52 53 55 53 51 50 50 49 49 49 50 49 49 48 49 48 48 48 47 47 46 48 48 47 46 46 47
42 47 51 51 51 52 49 47 49 48 46 49 49 49 48 48 49 49 49 48 47 43 46 46 46 46 46 47 48 45 44 45
41 44 48 50 50 49 46 46 46 48 49 46 46 47 47 46 45 46 47 47 45 44 45 46 46 46 44 45 45 44 43 43
39 43 46 48 49 50 47 47 45 46 48 47 46 45 45 47 49 46 45 45 45 42 42 45 45 46 44 45 42 45 44 41
40 42 43 45 49 50 49 46 45 46 47 47 47 48 48 46 47 46 44 44 43 41 42 43 44 44 44 45 44 44 44 42
39 41 43 45 49 50 49 46 44 45 47 48 46 45 45 45 45 43 41 40 40 41 41 44 44 44 44 44 44 42 42 42
40 40 40 44 46 47 47 46 44 45 45 45 47 47 46 43 42 41 39 39 40 39 42 42 42 42 42 42 43 42 41 40
40 41 41 42 45 46 47 45 44 44 46 46 47 46 43 42 42 40 40 39 40 41 41 41 41 41 41 41 41 40 39 40
39 41 42 42 43 45 47 45 44 45 45 46 45 44 43 42 41 41 40 41 37 39 40 39 40 40 40 39 38 38 39 39
38 38 41 42 44 46 48 45 43 43 43 43 41 42 41 40 40 39 40 39 38 38 39 40 39 39 39 39 39 39 38 38
37 38 40 41 43 44 45 42 41 41 41 41 41 40 39 39 39 39 38 38 38 37 37 35 35 36 38 39 38 38 36 35
38 39 40 40 40 41 41 41 40 39 39 38 37 38 37 37 37 36 36 36 37 35 34 33 33 33 33 34 34 33 33 32
37 39 39 38 38 40 39 39 38 37 36 34 35 35 35 35 35 35 35 35 33 31 28 27 26 27 26 26 25 27 26 25
38 38 38 37 37 36 36 35 38 37 34 33 34 35 34 33 34 33 33 32 29 27 27 27 28 24 23 25 24 25 25 23
37 38 37 34 33 33 32 33 37 37 35 33 35 34 33 33 34 33 32 30 27 27 26 26 26 24 21 25 24 23 23 22
36 36 33 31 32 31 30 31 35 38 36 35 34 34 33 34 34 33 30 28 26 26 26 26 26 20 28 26 26 24 23 22
35 32 32 30 27 26 26 28 33 37 36 34 36 36 35 34 32 28 25 26 27 27 26 26 26 26 28 27 26 23 22 21
33 30 28 27 26 25 26 23 24 26 29 33 38 35 34 31 30 28 26 26 26 26 27 26 26 23 29 28 27 23 22 21

GFSFLT1_sfc_dewp_015.txt.gz
Dewpoint
46 48 50 51 53 57 59 59 57 53 50 49 48 48 48 48 47 46 48 46 46 45 44 46 45 45 46 46 45 45 45 45
48 48 50 52 52 50 51 52 47 47 46 45 45 45 45 46 46 47 45 44 44 43 44 44 45 44 44 44 45 45 45 45
45 47 48 49 47 48 46 44 47 45 46 46 46 46 46 46 45 46 46 45 43 41 42 43 43 44 43 43 42 43 43 44
44 45 46 45 45 43 43 43 43 45 45 44 43 43 43 45 46 44 45 44 42 41 41 43 43 44 43 42 43 42 42 42
43 44 44 45 45 43 43 43 43 44 44 44 43 45 45 46 45 44 42 42 41 41 41 42 43 43 42 43 44 43 43 41
42 43 44 45 44 43 43 43 43 43 43 44 45 43 43 44 44 41 40 40 40 40 41 41 42 43 43 43 42 42 42 41
40 43 44 44 44 43 43 42 43 43 44 43 42 43 43 42 40 40 39 39 40 39 40 41 42 42 41 42 42 41 41 41
38 40 42 44 44 43 43 43 42 44 44 45 43 43 41 40 38 38 37 38 38 39 40 41 41 41 40 40 40 40 40 39
37 37 37 40 41 42 43 42 43 43 44 43 42 41 42 40 37 37 37 39 39 38 38 39 40 40 39 39 39 38 38 38
36 39 40 41 42 44 43 43 42 42 41 41 40 41 39 37 36 37 39 38 36 37 38 39 39 39 39 38 38 38 39 38
39 40 40 41 42 44 43 41 40 40 40 39 39 38 38 37 38 37 36 36 36 37 37 37 36 36 37 38 37 37 37 37
38 40 39 39 40 41 41 40 39 38 37 37 36 36 37 37 37 36 34 35 34 35 35 34 33 34 34 35 35 36 36 34
38 39 39 38 38 39 38 38 38 37 37 36 35 36 34 34 34 33 33 32 34 34 30 28 28 27 28 27 27 28 27 27
38 38 38 37 36 35 35 36 36 36 35 34 33 34 33 32 30 32 32 32 29 27 26 27 27 28 26 26 26 27 26 25
37 37 37 36 34 33 34 33 34 36 35 35 36 37 36 33 32 31 31 30 26 25 25 26 27 26 26 25 24 25 24 24
36 35 34 33 32 32 31 31 32 37 37 36 37 38 35 36 37 36 36 30 26 25 25 26 26 25 23 25 25 24 23 23
35 35 32 32 30 26 26 28 32 37 36 34 38 38 37 38 38 38 33 27 24 24 25 25 26 23 29 27 25 24 23 23
35 34 33 27 26 26 26 24 26 26 24 34 39 39 38 37 37 36 27 23 23 25 25 25 25 26 29 28 28 25 23 22
34 33 26 25 24 23 23 22 23 23 31 33 36 36 36 37 37 33 24 24 23 24 25 26 26 25 29 30 30 26 24 23

GFSFLT1_sfc_dewp_018.txt.gz
Dewpoint
49 51 54 57 58 59 59 59 59 55 50 48 50 48 49 47 47 46 45 45 45 44 45 45 45 44 44 43 42 43 43 43
47 48 48 48 49 51 52 53 50 49 46 46 47 46 45 45 46 46 45 44 43 43 43 43 44 44 43 42 43 42 42 43
45 47 49 50 50 51 47 44 45 45 45 49 49 46 46 47 47 44 43 42 41 40 41 42 43 42 41 41 41 42 43 43
44 45 46 44 44 43 42 42 43 44 45 44 44 44 45 45 44 42 41 41 41 41 41 41 41 42 42 42 43 42 41 42
43 43 44 44 43 43 43 43 42 43 44 43 43 44 43 44 43 40 39 40 40 40 41 41 41 43 42 43 42 42 41 40
43 43 43 43 42 42 42 42 43 43 43 43 44 41 43 43 41 39 38 40 40 40 41 41 41 42 41 42 41 40 40 39
43 44 44 44 44 43 42 43 43 43 44 43 42 42 41 40 38 37 39 39 39 39 39 40 40 39 39 39 39 39 39 39
42 42 43 43 43 43 43 43 44 45 44 43 42 40 39 37 37 37 39 38 38 37 38 39 39 39 39 38 38 39 38 37
39 39 40 41 43 43 43 41 41 42 43 41 41 40 40 39 38 37 39 37 36 36 38 38 39 38 38 38 38 37 38 37
40 41 41 42 42 42 42 41 41 40 40 39 39 41 40 39 37 38 37 36 35 36 37 37 37 36 37 37 36 36 35 35
39 39 40 41 42 41 41 40 39 40 39 38 37 38 39 37 37 36 35 35 35 35 34 34 33 32 33 34 34 34 34 34
39 39 39 38 39 37 37 37 37 38 37 37 36 35 37 37 36 35 34 35 35 34 34 30 28 27 28 28 28 29 27 26
38 38 37 36 35 34 33 34 35 37 37 37 35 35 34 35 35 35 35 35 34 34 31 27 27 26 26 26 26 26 26 25
37 37 36 35 34 33 33 33 33 34 36 34 34 35 33 33 33 34 34 33 33 31 26 27 26 26 26 26 25 25 24 24
35 35 35 33 33 32 31 29 32 36 36 35 35 36 37 36 33 37 38 37 36 32 27 27 27 26 25 24 24 24 23 23
35 35 34 32 32 29 27 28 31 33 32 32 36 37 36 36 37 37 38 37 36 29 26 26 26 25 23 25 24 24 23 23
35 34 33 33 27 25 25 25 25 27 27 36 37 37 37 37 37 37 37 37 28 25 26 27 25 23 29 28 28 25 24 23
33 33 32 25 23 23 21 22 24 25 33 34 36 36 37 37 37 38 36 34 28 26 26 26 25 25 29 30 30 26 25 24
32 30 23 22 21 20 21 21 22 27 32 33 34 35 35 35 36 35 34 28 27 25 27 26 25 25 30 29 28 26 24 24

GFSFLT1_sfc_dewp_024.txt.gz
Dewpoint
54 56 58 58 58 59 59 59 58 56 53 51 51 47 46 46 45 48 42 44 44 44 43 42 42 40 41 41 40 41 41 42
52 53 55 56 57 58 58 59 57 48 50 48 48 46 48 51 44 43 43 42 41 40 40 41 42 41 41 42 41 41 42 42
49 51 53 55 56 56 54 53 50 47 49 50 49 50 48 43 41 41 40 40 40 40 40 40 41 41 40 41 40 40 40 41
49 50 50 47 44 43 43 44 44 47 48 47 45 45 44 41 39 38 39 40 40 40 40 41 41 41 40 40 39 38 38 39
44 43 41 41 41 41 42 42 43 44 43 42 42 42 43 42 39 38 38 39 40 40 40 41 40 39 39 39 40 38 38 36
41 40 41 41 41 42 42 43 43 43 44 44 43 42 41 39 38 37 39 40 40 40 39 38 37 38 37 37 37 36 37 36
42 42 42 42 42 43 43 44 44 44 43 42 42 40 38 37 37 38 40 39 40 38 38 38 37 37 36 36 36 36 36 36
43 42 42 42 43 42 42 42 42 42 40 40 40 40 38 37 37 37 37 38 38 35 37 37 37 37 37 37 36 36 35 35
43 42 42 42 41 40 40 39 40 40 40 39 40 39 38 38 38 38 38 37 36 35 36 38 38 38 37 37 37 36 35 34
40 40 40 40 40 40 40 39 39 39 39 39 39 39 39 39 38 38 37 37 36 35 35 37 37 36 36 35 35 33 32 32
40 40 40 40 39 38 37 37 37 38 40 38 37 37 36 36 37 37 36 36 35 36 36 35 35 34 33 31 30 29 31 30
38 39 39 36 35 34 33 33 33 35 37 37 35 34 35 35 36 36 36 36 36 35 35 35 34 31 30 29 28 27 28 26
36 36 35 34 33 32 31 30 31 34 34 31 31 33 35 34 34 34 35 35 35 35 32 34 34 33 28 27 26 27 26 24
36 36 35 34 34 33 28 30 33 32 28 28 31 34 35 33 33 34 34 33 33 34 36 35 32 29 27 26 26 25 24 24
34 35 33 32 32 30 27 27 29 28 26 30 33 33 33 33 34 34 34 34 35 36 36 35 29 26 26 25 24 24 24 24
33 33 33 32 30 26 24 24 25 26 25 31 32 34 35 35 35 35 35 36 36 34 30 27 27 25 23 24 26 27 26 26
33 33 32 30 25 21 21 21 23 25 25 32 34 34 34 33 34 34 35 35 33 35 29 26 25 24 30 31 29 27 26 24
31 32 30 25 21 20 19 20 23 24 26 32 33 33 33 33 33 34 33 34 34 29 25 25 24 27 28 25 26 24 21 20
32 30 23 22 20 19 20 20 22 23 30 31 32 32 32 33 33 33 31 29 29 25 25 25 25 23 23 22 22 23 21 20

GFSFLT1_sfc_dewp_027.txt.gz
Dewpoint
54 56 58 59 59 59 60 61 59 56 54 53 52 51 48 47 48 50 48 45 45 44 43 44 43 42 42 41 41 39 40 40
55 56 59 59 59 59 60 59 57 54 52 51 50 48 50 50 44 44 44 43 43 44 42 43 43 41 42 41 39 39 35 40
54 56 58 58 59 59 59 57 52 51 48 49 51 51 48 43 42 43 42 43 42 41 43 42 42 39 41 41 41 37 37 41
54 55 57 57 56 57 57 54 49 49 50 50 48 46 43 41 40 40 41 42 41 42 43 42 42 41 39 40 41 40 35 37
52 52 47 46 45 47 49 50 48 48 48 46 47 45 45 45 42 41 40 42 41 41 41 42 42 41 39 38 38 39 37 32
46 42 42 43 44 46 46 46 45 46 47 48 46 45 43 41 41 41 42 43 42 41 41 41 41 39 40 38 39 37 36 34
42 42 43 43 45 46 47 46 45 46 46 46 46 44 43 41 41 41 42 42 43 43 40 41 41 39 39 38 39 38 36 36
43 42 42 44 45 46 46 44 43 44 44 44 44 44 43 42 41 41 41 40 41 41 40 41 40 40 39 39 39 38 37 33
43 43 44 44 44 43 43 42 42 42 43 42 43 43 42 41 42 41 41 41 40 41 40 40 40 40 39 39 38 37 38 34
43 44 44 43 42 43 43 41 40 41 42 42 42 42 41 41 41 41 40 41 39 40 39 38 38 39 38 38 36 35 34 32
42 42 42 41 41 41 41 40 38 40 42 41 40 39 37 38 39 39 40 40 40 40 39 39 37 37 36 34 31 31 31 31
41 41 40 38 37 36 37 35 35 38 39 38 35 35 36 37 37 38 38 39 36 37 37 37 36 33 33 35 32 30 29 29
40 40 37 35 34 34 32 32 35 36 32 31 32 35 35 34 34 35 36 35 36 36 36 35 35 36 35 34 29 29 28 28
37 37 36 35 34 34 30 33 35 29 26 27 30 34 34 33 34 34 34 35 37 37 36 37 37 36 29 28 28 27 25 25
36 35 34 33 34 33 29 29 30 28 25 27 31 35 35 34 35 34 35 36 37 38 38 34 33 28 27 26 25 26 28 27
34 34 34 34 34 30 26 26 27 27 27 26 33 36 36 35 34 35 36 37 37 35 31 29 28 27 24 28 28 27 25 23
33 34 34 33 32 27 25 24 25 26 26 27 34 35 34 34 35 35 35 36 35 34 31 30 27 26 30 27 26 24 21 18
33 34 33 32 27 25 23 22 24 25 25 29 33 33 33 33 33 32 32 35 34 32 29 27 27 27 25 24 23 21 18 17
33 33 31 27 24 22 23 21 23 24 26 31 32 32 32 32 31 30 31 34 32 32 28 26 26 21 22 22 22 19 18 17

GFSFLT1_sfc_dewp_030.txt.gz
Dewpoint
53 52 51 54 57 59 60 60 60 59 57 57 54 54 51 48 48 49 47 46 47 46 45 47 45 42 40 40 40 37 36 35
55 57 57 57 59 60 60 61 60 58 57 52 50 49 48 49 46 46 46 45 44 46 44 44 42 40 41 41 38 37 34 37
55 57 57 58 59 59 60 59 59 58 55 52 50 49 49 47 45 46 45 44 44 44 44 42 40 38 40 40 39 35 33 35
54 56 57 58 58 59 58 58 57 54 52 51 51 50 47 44 44 43 43 44 43 44 43 41 41 39 36 39 38 36 33 33
54 56 57 57 57 58 57 54 51 50 51 49 48 46 45 47 47 44 42 44 43 40 39 41 42 40 40 38 34 37 35 32
51 51 51 50 52 54 55 52 48 49 48 47 48 47 46 44 44 42 44 44 42 40 41 42 42 41 40 40 38 39 35 33
45 44 44 44 47 50 51 48 46 47 48 48 48 47 44 41 40 38 35 36 38 40 42 43 43 42 40 39 39 38 36 34
41 42 41 43 46 48 48 46 46 47 47 45 43 41 39 35 36 36 38 36 36 37 40 43 42 41 41 39 38 38 35 33
41 41 42 44 46 46 46 44 43 43 42 40 40 38 39 38 39 39 36 34 35 39 41 40 39 39 38 38 37 37 37 35
42 43 44 45 45 46 45 42 39 39 40 39 40 42 41 38 34 34 34 36 32 33 36 36 36 36 37 38 37 37 35 34
43 43 45 45 44 45 43 39 37 38 38 40 39 37 33 33 34 32 32 32 31 31 31 31 34 35 36 37 35 34 34 33
43 44 44 44 42 39 37 35 35 36 36 37 35 31 31 32 31 30 31 33 31 30 32 33 33 33 35 35 36 34 31 30
43 43 42 39 37 36 34 33 33 34 33 31 29 29 29 29 29 30 32 32 32 32 34 33 33 33 35 36 33 29 29 28
42 42 39 36 35 34 33 33 34 31 26 25 25 27 28 28 29 32 32 32 32 34 33 34 33 34 34 30 29 30 29 28
40 39 38 36 34 34 32 33 32 27 23 22 25 29 30 31 32 32 32 32 33 33 33 32 32 30 29 28 27 27 28 27
39 38 37 34 34 34 32 30 29 26 23 24 26 30 33 32 33 32 32 33 33 32 32 33 32 30 25 30 28 28 26 24
38 37 34 33 33 33 30 28 26 24 24 25 26 30 32 32 32 32 31 31 32 32 32 30 30 25 28 25 25 24 23 20
37 35 34 33 32 31 29 25 24 25 25 24 27 31 30 30 29 28 29 30 32 31 31 31 30 30 24 22 22 21 20 19
37 35 33 32 30 26 25 21 22 24 23 24 28 29 28 28 28 29 30 30 30 31 30 30 30 25 22 21 22 22 22 21

GFSFLT1_sfc_dewp_033.txt.gz
Dewpoint
48 47 45 46 54 59 59 60 60 60 60 59 57 56 55 53 50 49 49 48 49 48 48 49 46 44 43 43 43 39 36 33
52 50 49 52 57 58 59 61 60 58 56 55 54 53 50 50 48 49 49 48 47 48 46 46 45 42 43 43 39 38 34 35
52 53 54 55 57 59 59 59 59 57 55 54 52 50 50 48 48 49 47 47 46 45 46 43 43 41 40 39 41 37 35 35
52 53 55 57 57 58 59 59 58 56 54 51 50 51 50 47 46 46 45 46 44 43 43 42 41 39 36 39 39 38 34 34
52 54 55 56 58 59 58 57 55 53 52 49 50 45 44 46 46 45 45 45 43 41 40 41 41 40 40 39 35 38 37 33
51 54 55 56 57 56 55 54 50 50 50 49 49 46 48 47 46 46 46 45 44 40 40 42 42 40 40 40 40 38 35 33
51 51 51 50 54 55 54 49 47 49 48 49 48 49 45 43 42 40 35 35 36 37 37 39 40 40 40 39 39 38 37 37
45 44 43 46 50 52 51 47 46 48 49 48 48 46 41 38 37 35 36 34 34 35 37 39 37 37 37 37 40 39 38 37
41 41 41 44 46 47 46 45 45 47 46 43 41 37 36 36 37 36 33 32 34 36 35 35 35 35 35 37 38 39 39 39
40 41 42 44 46 47 47 46 44 44 42 39 39 38 38 35 34 34 33 34 29 30 33 32 32 32 33 35 36 38 38 38
41 41 43 45 46 48 48 46 42 39 38 38 38 40 35 32 33 32 31 32 31 32 31 31 32 32 33 33 34 36 37 39
41 42 44 45 46 46 45 40 37 36 37 39 39 34 32 32 31 31 30 32 31 30 29 31 31 31 31 34 35 36 34 33
41 43 44 45 45 43 41 38 34 36 36 35 35 32 29 30 29 28 31 31 31 29 30 31 30 32 34 35 33 30 31 30
41 43 44 44 43 41 38 35 34 34 34 32 29 28 29 30 28 30 31 31 30 30 31 31 31 31 31 31 30 30 30 29
41 42 43 42 41 39 36 34 36 36 29 28 26 27 30 29 30 31 32 31 30 30 31 30 31 30 28 29 28 28 29 28
41 42 42 41 39 37 35 34 36 33 33 25 26 28 29 29 31 32 32 31 30 31 30 30 31 30 27 30 28 27 24 23
40 41 41 40 38 36 34 34 33 35 29 26 27 27 26 29 31 32 30 29 29 30 30 30 30 26 28 26 25 25 24 21
39 39 40 39 37 36 34 34 33 28 25 25 25 25 27 28 27 26 27 29 30 30 30 30 32 30 27 24 23 23 23 22
38 39 39 38 36 34 33 30 27 25 25 24 23 26 26 26 26 26 28 29 30 29 30 31 31 28 26 23 23 23 23 23

GFSFLT1_sfc_dewp_036.txt.gz
Dewpoint
40 43 47 50 55 58 59 61 61 61 60 60 58 57 56 56 54 53 51 51 52 52 52 51 50 47 47 46 45 42 40 39
47 50 50 52 59 59 60 60 60 59 58 57 56 55 53 53 52 52 52 51 50 50 50 49 47 46 45 43 42 41 40 40
51 51 51 55 59 59 60 59 59 58 57 57 57 54 53 52 52 52 51 50 49 48 47 46 46 44 43 43 42 41 39 39
51 51 55 58 59 59 60 59 59 58 58 55 54 53 53 50 50 49 49 49 48 45 45 44 44 43 42 42 41 40 37 37
50 52 54 56 60 60 60 59 58 58 56 53 52 50 48 49 49 49 48 48 46 44 43 43 44 44 43 43 39 41 38 37
49 52 54 57 59 60 60 59 58 56 53 53 53 52 52 51 50 50 49 49 48 45 44 44 44 44 43 43 43 42 40 38
50 53 55 56 58 59 60 58 52 52 52 52 52 52 49 49 48 47 45 42 42 43 41 43 43 42 42 42 41 40 39 39
50 52 53 54 55 57 54 50 49 51 52 51 52 50 47 43 41 41 41 40 39 41 41 40 39 39 40 40 40 41 40 38
50 50 49 50 53 54 52 48 47 49 51 50 49 45 43 40 43 41 39 38 39 38 36 37 37 37 37 38 39 39 40 39
46 44 46 48 49 52 51 48 47 49 49 46 45 43 42 42 41 39 39 38 33 37 37 36 36 36 37 37 36 37 38 38
43 41 45 46 48 50 52 50 47 48 44 45 42 43 41 41 37 37 35 35 34 35 35 34 35 36 36 36 37 36 37 38
42 41 43 46 48 49 50 48 45 43 41 42 43 41 40 37 37 36 34 34 34 34 33 33 34 34 35 35 36 36 34 34
41 42 44 45 47 47 48 47 43 41 41 42 41 39 38 37 36 35 35 34 35 33 33 33 33 33 33 33 34 34 32 31
41 42 43 45 46 47 46 45 41 39 38 37 37 38 35 34 35 34 34 34 34 33 32 34 34 33 31 32 32 32 31 31
40 41 43 45 46 46 44 42 40 38 36 36 35 35 35 34 33 33 34 34 33 33 34 34 35 32 31 31 30 31 30 28
39 41 45 45 45 44 42 40 39 39 38 34 36 34 33 33 34 34 35 35 33 34 34 34 32 31 29 31 29 28 27 26
39 42 43 44 44 42 41 39 39 37 38 35 33 32 31 33 34 35 35 34 33 33 32 33 32 27 30 29 27 25 25 25
38 40 42 44 43 42 40 37 36 38 34 34 31 30 30 32 31 31 31 32 33 33 33 33 32 32 30 27 25 23 24 25
35 39 42 43 43 40 38 34 37 33 30 30 31 29 29 29 31 31 31 32 33 32 32 32 32 31 30 28 25 22 24 24

GFSFLT1_sfc_dewp_039.txt.gz
Dewpoint
45 47 49 52 55 55 60 58 59 58 58 58 58 56 56 54 54 52 50 50 51 51 50 48 47 45 44 43 41 40 38 38
44 45 51 53 57 58 59 59 59 58 58 57 56 54 53 52 51 50 49 50 48 49 49 48 45 44 41 41 40 38 38 39
47 46 51 54 56 59 59 59 59 58 58 57 55 52 51 50 49 50 49 48 48 46 45 44 42 41 41 40 39 39 38 37
49 49 54 57 56 59 59 59 58 57 58 56 53 51 51 49 49 48 47 48 46 45 44 42 41 41 39 39 39 38 36 36
50 50 53 57 58 59 60 59 59 57 58 53 50 50 48 47 48 48 47 45 44 43 42 42 42 42 40 41 40 39 38 35
50 51 53 58 59 60 60 60 59 58 57 51 50 50 49 49 49 47 46 45 44 43 43 42 41 42 41 40 40 41 40 37
51 52 57 58 60 60 59 58 58 57 52 51 50 49 47 46 47 47 47 45 42 40 39 39 39 38 37 37 37 38 38 38
52 55 55 57 57 57 58 58 54 51 50 50 49 47 45 44 43 40 39 38 39 37 35 36 36 36 36 36 36 37 38 38
52 53 54 56 56 57 57 53 49 49 49 49 45 40 39 41 39 37 37 38 38 35 35 35 34 34 34 35 35 35 36 38
50 50 51 53 53 52 49 48 48 49 49 44 39 40 40 39 38 36 38 36 34 35 34 33 33 33 34 34 35 35 36 36
46 45 48 49 49 50 49 48 48 48 44 41 40 39 38 39 38 35 36 34 34 33 33 32 32 33 34 35 35 35 35 36
43 42 46 47 48 48 48 47 47 43 40 40 41 39 42 36 36 36 35 35 34 32 32 31 31 32 33 32 33 33 33 32
42 41 44 46 46 48 47 47 43 40 40 40 38 38 37 36 36 35 35 33 34 32 31 31 33 33 31 31 32 31 30 30
41 41 43 45 46 47 47 45 41 39 39 37 37 39 36 35 35 36 34 34 33 31 31 32 33 33 30 31 30 31 31 30
41 41 42 44 46 46 46 44 40 39 35 35 37 37 34 34 34 33 34 33 32 31 32 33 35 33 31 31 30 30 28 26
41 41 44 46 47 47 46 44 41 37 37 35 37 37 36 35 35 34 35 33 31 32 32 33 33 32 30 32 29 27 25 25
40 46 47 46 47 46 44 40 39 37 35 36 38 38 37 33 33 33 33 33 32 32 32 33 33 28 32 31 28 25 24 23
35 39 43 45 46 45 40 38 38 38 36 36 37 35 32 33 31 30 30 30 31 32 32 33 32 31 32 31 29 23 23 23
33 35 40 42 42 38 38 38 38 33 33 34 35 34 31 32 31 31 31 32 31 32 31 31 32 32 32 31 28 22 22 24

GFSFLT1_sfc_dewp_042.txt.gz
Dewpoint
55 53 54 54 55 54 60 58 58 57 57 57 56 56 55 55 53 51 51 50 50 50 48 47 47 45 43 43 39 39 38 37
51 50 52 52 54 58 58 57 57 57 56 55 55 54 53 53 52 51 49 50 51 49 48 45 44 41 41 41 39 37 37 37
47 48 50 52 55 58 58 57 57 56 57 56 55 54 53 52 51 49 50 49 48 46 45 43 41 41 40 39 38 38 38 37
45 49 51 52 56 58 58 58 57 57 57 56 53 51 50 49 49 49 48 48 46 45 44 42 41 40 39 38 38 38 35 36
46 50 51 53 58 59 58 58 57 57 57 55 52 49 48 49 48 47 47 47 45 44 43 42 42 42 40 41 40 39 38 36
47 52 52 54 58 59 59 58 58 56 57 55 52 50 49 48 48 47 46 44 44 43 43 42 41 41 39 37 37 37 39 37
48 53 56 57 59 59 59 59 58 58 57 52 52 49 48 48 47 46 45 45 41 40 39 39 38 37 36 36 35 35 36 37
51 56 57 58 58 59 59 59 58 58 55 51 50 49 48 47 47 46 42 39 38 37 37 37 37 36 35 34 33 33 34 36
52 55 57 58 58 59 58 58 56 53 51 50 49 46 45 44 42 40 40 39 38 37 36 35 34 35 34 33 35 36 36 36
53 54 56 56 56 57 57 57 51 51 51 46 42 43 41 40 40 41 39 38 35 37 35 34 34 34 35 36 35 34 35 35
51 53 55 55 55 53 52 52 50 50 45 43 43 42 42 42 43 40 38 37 36 35 33 32 32 33 35 34 33 33 33 33
49 50 52 52 52 49 48 49 49 46 41 43 43 44 44 41 42 39 38 36 35 35 35 31 31 31 33 32 32 33 32 31
47 49 49 49 49 49 47 47 47 44 40 40 40 40 38 38 38 36 37 35 37 35 32 31 32 33 32 31 31 31 30 30
44 45 47 48 48 48 47 46 44 40 40 38 38 37 37 38 38 37 35 35 34 32 31 31 32 33 31 32 31 31 31 30
42 42 44 46 47 47 47 45 42 43 40 37 38 38 37 37 35 34 34 34 32 31 31 32 34 33 32 32 30 31 30 27
42 42 42 45 47 48 48 45 43 42 39 38 41 39 37 37 36 35 36 33 32 31 32 33 34 33 31 32 31 29 27 26
43 43 45 46 47 47 48 46 43 41 40 40 40 40 35 35 34 35 35 33 32 31 31 34 33 31 32 34 31 28 26 24
39 45 46 47 47 47 45 40 40 39 38 38 36 35 34 34 33 32 31 30 30 30 32 32 33 33 33 34 32 26 24 24
39 40 40 41 39 39 39 38 36 35 35 35 33 32 32 33 34 33 34 32 31 32 32 33 32 31 33 33 31 24 23 23

GFSFLT1_sfc_dewp_045.txt.gz
Dewpoint
58 58 57 54 57 55 58 59 58 58 57 56 56 56 55 54 52 51 51 50 49 49 48 47 45 44 43 41 39 39 37 36
56 57 57 57 55 57 58 57 57 57 56 55 54 54 53 53 52 51 50 49 50 48 47 46 43 41 41 39 38 36 37 36
55 55 55 54 54 57 57 57 57 57 56 55 55 54 53 52 51 50 49 50 49 47 45 43 41 41 39 38 38 38 37 36
54 52 52 53 53 57 57 57 57 56 56 55 53 52 51 50 49 48 49 49 48 46 44 42 40 40 39 38 38 37 36 36
52 50 51 52 53 56 57 57 57 56 56 54 52 50 51 51 49 48 48 48 46 44 43 42 41 41 40 41 40 39 37 36
48 49 50 51 54 57 57 58 57 56 56 56 54 52 50 49 48 47 47 45 44 43 43 42 42 41 38 36 36 36 39 37
46 49 51 51 56 58 58 58 57 56 56 56 54 52 49 49 47 46 45 43 42 41 40 39 37 37 36 35 34 33 34 35
49 52 51 54 57 57 58 58 57 57 56 56 54 53 50 49 47 46 43 39 38 38 37 36 37 36 36 34 34 34 35 36
51 52 54 56 57 58 58 58 58 58 58 56 53 51 50 49 47 46 42 39 37 36 38 38 38 35 35 35 36 36 36 35
51 54 56 57 57 57 58 58 58 57 56 52 50 50 47 45 44 44 42 39 37 39 40 36 36 35 35 36 36 34 34 34
52 54 56 57 58 58 57 57 55 53 49 48 47 47 43 43 44 42 39 39 40 38 36 37 36 36 36 36 33 33 33 34
52 53 55 56 56 55 56 56 51 49 44 45 44 44 43 42 41 40 39 39 37 38 40 37 35 33 35 33 32 33 33 32
51 52 53 54 54 53 53 53 51 48 44 44 45 43 42 40 39 38 37 37 39 40 38 34 33 33 33 33 32 32 31 30
48 50 52 53 53 51 51 50 51 45 44 44 45 43 41 41 40 38 40 39 36 34 33 33 33 33 33 32 32 32 31 31
45 46 49 51 51 51 49 49 47 44 43 42 43 41 42 42 39 37 36 36 33 32 33 33 34 34 33 32 31 31 31 31
44 43 44 46 48 49 48 47 45 43 42 43 42 39 39 38 37 35 36 35 33 33 32 34 34 34 33 33 31 31 30 28
42 44 43 45 48 48 47 44 45 44 43 41 40 39 37 36 36 36 34 33 31 33 36 33 33 31 33 34 33 30 29 27
39 44 45 47 47 46 43 41 41 40 40 39 36 35 34 35 35 35 35 37 38 37 33 33 32 32 34 35 35 29 27 25
34 36 38 39 40 40 38 38 37 36 34 33 34 35 34 35 36 38 38 38 35 31 31 31 31 31 34 34 34 28 25 25

GFSFLT1_sfc_dewp_048.txt.gz
Dewpoint
55 57 56 55 56 58 57 58 57 57 57 56 56 56 56 55 54 53 51 50 49 48 49 48 45 44 42 40 39 38 37 35
57 57 57 54 56 56 57 57 56 57 55 55 54 54 55 54 53 52 51 49 49 48 47 45 44 43 41 39 38 37 37 36
57 57 57 56 55 56 58 57 57 57 57 54 54 54 53 54 53 51 50 49 49 47 46 44 42 41 40 39 38 38 37 36
55 56 57 56 55 55 57 57 57 57 57 55 52 53 53 52 50 49 49 50 49 46 44 42 41 40 39 38 38 37 36 37
55 55 55 55 55 55 57 57 57 57 56 54 52 52 51 52 50 48 49 49 48 46 43 41 41 41 40 40 39 38 38 35
53 54 54 54 54 55 56 57 57 57 56 55 53 52 53 51 49 49 49 46 45 43 42 42 41 40 38 37 37 37 39 37
51 54 52 52 54 55 56 56 56 56 56 55 54 53 52 50 50 48 45 44 43 42 41 39 38 37 35 36 37 35 35 36
48 49 50 51 53 55 56 56 56 57 56 56 55 55 53 51 49 47 43 41 39 38 37 37 36 38 40 39 35 34 35 35
46 47 50 51 54 56 57 57 56 57 57 56 56 55 54 52 50 47 44 40 39 38 39 40 42 40 36 37 36 36 36 36
45 48 50 52 55 56 57 57 57 57 57 57 55 54 52 51 50 46 42 40 38 39 44 42 37 37 39 37 36 36 35 34
47 51 53 54 55 56 57 57 57 57 57 55 53 52 51 50 48 45 43 41 40 43 42 36 38 40 37 36 35 34 33 34
50 52 54 55 55 56 56 57 57 54 52 51 50 49 48 49 48 46 44 41 43 41 37 39 39 36 35 35 33 33 34 32
50 51 53 54 55 56 56 56 55 54 49 48 48 48 48 48 46 43 43 41 39 39 42 38 35 33 34 34 34 32 33 32
49 50 52 53 54 54 54 54 53 49 48 47 48 47 46 43 42 41 39 39 40 38 37 35 34 34 34 35 34 33 32 31
48 48 50 51 52 52 51 50 49 48 48 47 46 45 44 41 41 39 39 38 36 36 36 34 35 37 34 34 32 32 32 31
46 46 47 48 50 49 48 47 46 46 45 43 44 44 41 39 37 37 38 37 34 34 36 39 37 35 32 33 32 31 30 30
43 44 43 46 48 47 47 45 44 44 43 41 39 39 38 37 35 35 35 34 36 40 39 39 37 34 33 35 34 31 30 30
39 40 42 44 45 43 42 42 41 40 39 37 36 36 35 35 35 35 36 39 40 39 39 37 33 32 33 35 35 32 30 29
34 35 36 38 38 38 37 36 35 35 34 34 35 35 36 37 38 39 40 40 39 38 34 32 31 30 33 34 34 32 30 28

GFSFLT1_sfc_dewp_051.txt.gz
Dewpoint
54 55 55 54 55 57 59 60 61 60 60 59 59 60 61 61 60 58 56 55 54 53 52 50 48 46 45 44 43 42 40 39
54 54 55 55 55 57 58 60 61 59 58 58 57 59 60 60 58 57 56 52 52 52 51 49 48 46 45 45 43 43 41 41
55 55 55 55 55 57 57 58 60 59 57 58 58 59 59 59 58 55 55 53 51 51 51 48 48 46 45 44 44 41 41 41
56 57 57 57 55 56 56 57 59 59 58 57 56 58 58 57 56 55 54 52 50 50 51 49 47 46 43 44 44 43 40 40
56 57 57 58 57 57 56 58 58 59 59 56 56 56 56 57 56 55 52 52 50 49 48 48 46 45 44 44 43 43 41 37
54 56 57 58 58 59 58 58 58 59 58 57 58 57 58 56 55 54 53 51 50 47 47 46 45 44 45 45 43 42 40 37
53 55 56 56 59 59 59 58 58 59 58 58 57 56 56 55 54 54 52 50 49 48 45 46 46 44 42 41 43 42 39 39
51 53 55 55 56 57 58 57 57 58 58 57 57 57 56 54 54 53 49 49 47 46 45 44 42 40 41 42 41 38 37 37
49 51 54 54 55 56 57 57 57 57 58 57 57 57 57 56 55 53 50 50 47 45 44 41 41 41 43 40 40 38 40 39
47 49 52 53 54 56 57 57 56 57 58 58 58 58 57 57 55 54 52 48 43 43 42 41 43 41 40 41 40 38 39 40
44 47 50 52 54 56 57 57 57 57 57 58 58 57 57 57 55 52 49 46 43 43 42 43 40 40 42 40 38 38 38 39
47 48 51 52 54 55 56 56 56 57 58 58 58 57 56 55 53 51 48 45 42 43 43 39 39 43 40 37 37 37 36 36
48 50 53 54 54 55 55 56 57 57 57 57 56 54 53 52 51 48 46 43 43 43 40 40 42 38 37 37 37 35 35 35
50 52 53 54 55 56 56 57 57 57 54 53 52 51 50 50 47 45 44 43 41 40 41 41 38 38 37 37 36 36 37 35
48 50 52 53 55 55 56 56 54 51 50 50 49 49 48 45 44 43 42 41 41 41 40 41 40 37 36 36 37 36 35 34
46 47 49 51 53 53 52 51 50 50 48 46 46 45 43 41 40 40 41 40 39 37 37 39 39 38 37 37 37 36 35 35
44 45 46 49 50 49 48 47 46 46 45 43 41 39 38 37 37 36 36 39 38 41 41 40 40 39 37 37 36 35 34 33
41 42 43 44 45 45 44 43 42 41 39 38 36 36 35 36 37 39 40 41 42 41 41 41 41 40 36 35 35 33 34 34
37 38 39 39 40 39 39 37 37 37 36 35 36 38 38 40 40 41 41 41 41 41 40 39 37 33 33 34 34 33 32 32

GFSFLT1_sfc_dewp_054.txt.gz
Dewpoint
55 55 53 53 53 52 52 54 57 59 59 60 56 54 55 57 60 62 61 61 62 59 56 55 50 47 47 47 47 45 43 41
53 54 54 53 54 55 55 56 58 59 58 56 55 53 55 57 59 61 60 59 60 59 56 54 51 48 49 51 47 46 42 43
51 53 53 53 53 55 55 55 57 58 57 56 54 52 54 57 60 60 60 58 57 56 55 53 51 49 49 50 48 44 43 43
52 51 53 54 53 55 56 57 58 59 58 57 54 55 56 57 59 60 59 58 55 54 55 53 53 50 48 49 48 46 42 43
52 53 53 53 53 54 54 54 55 58 59 56 55 51 52 55 58 60 58 57 55 53 53 53 52 50 49 48 46 46 44 41
50 53 54 54 55 55 55 55 55 57 59 59 56 54 52 55 60 59 57 57 56 53 52 52 52 50 49 48 47 47 44 43
48 51 55 56 57 58 58 56 55 57 59 60 60 58 57 57 58 58 57 56 55 53 50 50 51 49 49 48 48 44 44 42
49 49 52 55 57 59 59 58 56 57 59 59 60 60 60 59 58 57 57 55 53 52 51 51 49 49 48 44 43 45 41 40
47 49 51 53 56 59 59 58 58 57 59 60 60 60 60 59 58 58 57 55 53 53 51 50 48 44 42 43 44 40 40 40
43 46 50 53 55 58 59 58 57 57 59 60 60 60 60 59 59 58 57 54 53 50 49 47 45 43 44 42 43 42 41 41
41 44 49 52 54 56 59 59 57 58 59 60 59 59 60 59 59 58 55 52 48 47 46 46 45 43 42 44 43 41 41 43
43 44 46 49 52 54 56 57 56 57 57 59 59 59 59 58 58 57 53 50 47 46 45 46 42 42 44 42 41 39 39 41
46 48 49 50 52 53 54 55 55 56 57 59 59 58 57 57 55 53 50 46 46 46 45 42 40 43 42 40 39 40 41 37
47 49 50 51 53 54 54 56 56 56 57 57 56 54 53 52 50 48 46 45 44 44 42 40 41 41 39 41 41 41 39 37
47 49 50 52 54 55 56 57 57 55 54 53 51 51 50 49 47 46 46 45 44 42 42 42 41 41 42 42 40 39 39 37
47 49 51 53 55 55 55 55 53 52 50 49 48 47 46 45 45 45 44 43 41 42 41 41 41 40 39 39 39 40 39 36
45 47 50 51 52 51 51 51 51 49 47 44 43 42 41 42 42 42 40 39 39 39 39 41 40 39 38 39 39 39 35 34
44 46 47 48 48 48 47 47 46 45 42 40 40 39 38 39 39 39 39 40 41 41 41 41 41 41 39 38 36 33 32 33
42 43 44 45 44 44 44 42 42 40 38 37 37 39 39 41 42 42 43 42 42 42 41 40 38 35 34 34 34 33 32 31

GFSFLT1_sfc_dewp_057.txt.gz
Dewpoint
52 49 50 49 49 50 51 54 55 57 58 56 53 54 55 53 52 56 60 60 61 59 56 57 56 53 50 49 50 50 48 43
52 52 50 50 51 52 53 54 56 52 53 52 52 51 52 52 53 58 62 61 60 62 59 58 57 52 52 51 50 51 48 44
51 52 52 52 52 51 51 51 52 52 50 50 50 51 50 54 55 58 61 61 59 60 61 59 57 52 52 52 51 50 50 46
50 50 52 52 52 52 50 52 53 53 53 51 51 50 50 50 53 56 61 60 59 59 59 58 56 54 52 52 50 51 47 45
50 51 51 52 52 54 53 53 53 54 55 53 53 50 48 50 53 55 60 59 59 59 57 58 57 55 54 52 50 51 49 45
48 49 50 51 53 54 55 55 54 55 55 55 54 53 51 51 53 56 59 60 59 57 57 58 57 54 53 52 51 52 48 46
46 49 50 51 53 55 57 54 53 54 55 57 58 57 55 52 52 59 59 59 59 58 57 57 56 54 52 52 53 51 47 46
43 46 50 51 53 55 56 54 53 54 56 57 58 58 59 57 57 59 58 58 57 57 56 54 54 53 54 52 49 45 46 44
44 45 47 51 54 57 56 55 55 54 56 57 59 60 60 60 59 58 59 58 59 57 54 54 53 49 46 48 49 46 43 42
41 45 46 49 53 57 60 58 57 56 57 59 61 62 62 61 61 61 60 60 57 56 54 52 48 48 49 48 46 43 43 42
39 41 46 48 51 56 59 59 58 58 59 60 60 62 62 61 61 60 59 59 56 54 51 49 48 48 47 45 44 44 42 44
40 41 43 47 50 54 57 58 57 57 58 60 61 61 60 60 60 59 59 56 52 50 48 48 46 46 45 44 42 41 41 42
42 43 44 46 50 52 54 57 57 57 57 59 61 61 59 59 58 57 54 52 49 48 48 46 45 44 44 43 40 40 40 39
44 47 48 48 50 51 53 55 55 55 56 58 57 56 55 54 51 50 49 47 47 47 45 43 43 44 42 41 40 40 41 42
37 42 47 50 52 53 54 57 57 57 56 54 53 53 51 50 48 47 46 46 45 45 43 43 43 42 40 40 41 42 42 41
39 41 46 51 53 55 56 55 54 53 52 50 50 49 48 48 47 46 46 45 43 42 43 42 41 41 41 42 42 40 41 41
42 45 50 53 54 54 54 52 51 50 49 46 46 46 46 47 46 45 44 43 42 42 41 41 41 40 39 38 39 41 39 36
43 47 51 52 51 52 52 50 49 47 45 45 44 44 43 43 42 41 41 41 42 42 41 41 41 41 39 39 38 38 33 32
46 48 48 48 48 47 47 46 45 44 42 41 41 41 41 41 41 42 43 43 43 43 42 41 41 37 38 35 34 32 30 29

GFSFLT1_sfc_dewp_063.txt.gz
Dewpoint
52 51 51 51 52 54 54 53 53 52 52 50 51 54 55 55 54 56 58 57 59 57 57 57 56 54 53 51 49 50 51 47
52 51 51 51 51 52 53 53 52 52 51 50 49 52 54 54 55 55 59 59 59 59 58 58 57 54 53 50 50 50 49 48
52 51 50 51 51 52 53 52 52 50 50 49 50 52 54 55 55 55 59 60 61 60 59 59 59 57 52 52 51 49 49 49
51 50 50 51 51 51 52 52 51 50 49 50 52 54 53 54 54 53 59 60 60 60 60 60 59 57 55 53 51 49 48 50
50 49 49 50 50 51 51 52 53 52 52 51 52 52 51 51 53 54 58 60 60 60 59 59 59 58 57 55 53 52 50 50
48 48 48 49 49 50 51 52 51 51 53 54 53 51 51 51 51 53 56 60 59 59 58 57 57 57 55 56 54 54 53 52
49 48 49 48 48 49 50 51 51 51 52 53 52 50 52 52 51 53 56 59 60 59 58 58 57 58 57 54 54 53 52 49
50 49 48 49 49 50 50 51 51 51 52 52 52 54 53 53 52 54 58 58 58 58 58 57 56 55 53 53 54 52 50 48
49 50 50 50 50 51 51 50 50 50 52 52 53 55 58 56 56 57 57 58 58 58 58 57 56 53 52 52 50 50 48 47
48 50 50 50 51 51 52 51 50 52 53 54 56 56 57 58 56 58 58 58 59 57 58 56 54 52 50 50 49 47 46 44
48 49 50 51 51 52 53 53 53 53 53 55 55 58 58 58 58 58 59 59 58 57 55 52 50 50 50 48 46 44 43 44
40 45 49 49 50 52 53 53 53 53 54 54 55 58 58 58 60 60 58 56 55 54 52 50 49 49 47 46 44 43 43 43
38 42 46 49 49 50 53 54 54 55 55 56 59 60 59 59 58 58 56 54 54 51 50 49 48 46 45 44 42 42 41 41
41 42 43 48 50 52 53 57 62 61 61 60 59 57 55 54 52 52 52 50 49 48 48 46 45 44 43 43 42 42 41 41
43 44 44 48 56 57 58 60 59 58 57 56 54 52 50 49 50 49 48 48 47 46 45 45 45 44 43 42 41 41 41 41
44 46 47 55 55 53 54 54 54 54 53 51 50 49 49 48 47 46 46 45 44 44 44 44 44 43 41 41 41 41 42 41
42 47 52 55 54 52 52 51 51 51 50 49 48 48 47 46 45 45 44 43 43 43 43 42 41 41 39 39 41 41 40 40
40 48 54 55 53 51 50 49 49 49 49 49 48 47 46 45 44 43 43 43 42 41 39 40 40 40 39 39 38 39 38 32
51 51 55 53 52 50 50 48 48 48 47 48 47 46 44 44 43 42 42 41 40 39 39 40 40 40 37 37 35 31 30 28

GFSFLT1_sfc_dewp_069.txt.gz
Dewpoint
51 52 53 54 54 55 55 56 56 55 54 54 53 54 52 54 56 56 56 55 56 55 55 55 54 53 52 51 49 49 47 46
51 52 52 53 54 54 54 54 54 53 53 54 52 50 50 53 54 55 56 56 57 56 56 56 54 53 51 51 49 48 49 48
51 51 51 52 54 53 53 52 52 52 52 51 51 48 50 53 53 53 55 56 57 57 56 56 55 54 53 51 50 49 49 49
50 50 51 51 52 53 52 52 51 51 50 50 49 49 50 50 51 52 53 55 57 57 57 57 56 55 53 52 51 50 49 50
51 50 50 50 51 52 52 52 52 51 50 49 48 47 44 44 47 48 50 55 57 57 57 57 57 57 55 54 53 51 51 50
50 50 50 50 50 51 52 52 52 51 51 50 48 47 47 47 48 50 51 53 56 57 58 57 57 57 57 55 52 52 52 50
51 51 50 50 50 50 52 52 51 51 51 50 49 48 48 49 51 52 52 53 55 57 57 58 57 57 56 56 54 52 51 50
50 50 50 49 49 50 51 51 51 51 51 50 49 48 49 50 50 52 50 51 53 56 57 57 57 57 56 54 53 53 51 50
50 51 50 50 50 50 50 51 51 50 50 50 50 48 49 51 53 53 53 53 53 55 57 58 57 56 56 54 54 52 52 51
49 51 50 50 50 50 50 50 50 50 50 50 49 50 50 52 53 54 54 55 55 55 56 57 57 56 56 55 54 51 50 49
48 50 51 50 50 50 51 50 49 49 50 50 49 50 52 53 54 54 55 55 57 57 57 57 56 56 53 53 51 49 49 47
49 49 49 50 49 49 50 50 48 48 48 49 50 51 53 54 54 55 56 57 58 57 57 57 56 54 53 51 49 47 46 45
47 50 50 48 49 49 49 50 50 51 50 50 51 52 53 54 55 57 57 58 58 58 57 55 53 51 50 49 46 46 45 44
46 46 50 50 49 49 50 51 52 53 52 51 52 53 53 54 57 57 58 57 56 55 55 53 51 50 48 47 47 45 44 43
41 45 48 50 51 50 51 52 52 53 53 54 53 54 55 56 58 58 58 55 54 52 52 51 49 47 47 46 45 44 43 43
40 41 44 47 50 51 52 52 54 54 53 54 54 55 56 58 57 55 52 52 51 50 48 47 46 45 45 44 43 43 42 42
40 43 52 52 52 51 51 53 54 55 55 55 56 55 55 55 53 51 50 49 48 47 46 45 45 44 40 40 41 41 41 42
39 44 52 53 53 53 53 55 55 55 55 53 53 53 51 50 50 49 48 47 46 45 45 44 42 42 39 39 39 41 38 34
35 44 52 52 51 54 54 54 54 53 52 51 50 50 49 48 48 46 45 45 44 43 43 43 42 40 38 37 34 31 29 27

GFSFLT1_sfc_dewp_072.txt.gz
Dewpoint
51 53 53 54 55 56 57 57 57 57 56 55 56 57 58 58 57 53 52 52 52 52 51 52 53 52 51 50 48 49 46 44
51 52 53 53 54 55 56 56 56 56 55 52 54 55 56 57 56 54 53 53 53 54 53 55 54 52 51 50 50 49 49 47
50 52 50 53 52 54 54 54 54 55 55 54 55 53 53 54 55 56 56 55 55 55 55 56 55 54 52 51 50 49 49 48
49 50 49 51 52 53 53 53 53 53 54 53 52 52 53 52 53 53 55 56 57 57 56 56 55 54 53 52 50 50 49 50
50 49 49 50 53 53 53 52 52 51 50 50 49 49 49 49 50 51 52 55 56 56 56 56 56 55 53 53 52 52 52 49
50 50 50 50 50 52 52 52 51 50 50 50 49 48 48 46 48 48 49 52 54 55 56 56 57 56 55 55 53 52 52 51
51 51 50 50 51 51 52 51 51 51 50 49 49 48 48 47 47 48 50 51 52 54 55 56 56 56 56 56 56 54 53 52
50 50 50 49 49 51 51 52 51 51 51 50 49 48 48 48 47 48 48 50 51 52 54 55 56 56 56 56 55 54 52 51
50 50 50 50 49 50 51 51 51 51 51 50 50 49 49 49 49 50 51 50 50 52 54 55 55 55 54 54 53 54 54 53
50 50 50 49 49 49 50 51 51 51 51 51 50 50 49 49 51 52 52 52 53 52 53 54 55 56 55 55 55 54 52 52
49 50 51 50 50 50 50 50 51 51 51 51 50 50 50 50 51 52 53 54 53 53 54 54 55 55 55 56 56 55 53 50
48 49 51 51 50 51 50 50 51 50 50 50 50 50 51 51 52 53 54 54 54 55 55 56 56 56 55 54 53 51 51 48
48 49 50 51 50 50 50 51 51 51 50 50 50 51 51 51 52 52 53 54 55 56 56 56 56 55 52 52 50 49 49 47
46 49 49 49 50 49 49 50 51 51 51 50 51 51 50 50 51 52 54 55 55 56 57 56 55 53 52 51 50 49 48 48
43 46 49 50 49 49 49 50 50 50 51 50 50 50 50 50 51 53 55 56 56 56 55 54 52 50 50 49 48 48 46 46
37 44 46 50 50 50 50 50 50 51 50 50 50 50 50 50 53 55 55 56 56 56 54 52 52 50 49 48 46 45 44 44
32 39 43 48 50 51 50 51 51 51 51 51 51 51 52 53 54 55 56 56 55 52 50 49 47 46 41 42 43 44 43 43
32 36 41 44 47 50 51 51 53 52 51 51 52 52 53 54 55 54 52 52 50 48 46 46 46 45 40 41 40 43 42 36
32 35 41 48 51 51 51 52 53 53 53 53 54 54 54 51 50 50 49 48 48 47 45 45 44 41 39 39 37 35 33 31

GFSFLT1_sfc_dewp_078.txt.gz
Dewpoint
54 55 54 53 54 55 58 59 58 58 59 60 60 58 58 58 55 51 49 48 53 51 48 51 49 47 47 45 47 45 44 43
54 55 55 53 54 55 57 58 58 58 58 58 58 57 57 56 55 52 51 49 51 54 54 53 51 50 51 51 48 49 46 46
54 54 54 54 54 55 57 57 57 57 57 56 58 58 58 56 55 52 52 52 53 55 54 54 54 55 54 54 52 51 52 49
52 54 54 54 53 54 55 57 57 57 57 56 58 58 58 56 56 54 53 53 53 54 55 55 56 55 54 55 54 53 51 54
51 53 53 54 53 54 55 56 56 56 57 56 57 56 55 56 54 54 54 53 53 53 55 56 57 56 55 56 54 55 54 52
49 52 52 52 53 53 55 56 56 56 56 56 55 55 56 57 56 55 54 54 54 54 55 55 55 56 56 57 57 57 55 54
48 51 52 52 53 55 54 54 55 56 56 55 56 55 55 56 55 54 54 53 53 54 53 57 56 58 57 58 60 59 58 57
48 50 51 52 52 53 53 54 54 55 56 55 56 56 55 55 55 54 53 53 52 53 54 55 57 58 58 58 59 60 59 58
47 49 51 52 52 53 53 53 53 54 54 56 56 56 55 56 57 55 54 53 53 54 55 55 56 56 56 57 59 58 58 59
46 48 51 52 52 53 53 52 52 54 55 55 56 56 56 55 56 56 55 54 53 55 57 56 56 56 55 56 57 57 57 58
45 47 50 52 52 54 54 53 52 53 54 55 54 54 55 55 56 56 56 56 55 56 56 56 56 55 55 55 55 55 56 58
44 47 49 51 52 53 53 52 51 52 53 54 54 54 55 56 56 56 56 56 55 54 54 54 53 53 53 55 55 55 55 57
45 47 49 50 52 52 53 53 52 52 53 54 56 55 54 56 57 57 58 56 56 54 53 52 52 52 54 54 55 56 56 57
43 47 49 50 51 52 52 54 54 53 52 54 55 56 54 54 54 55 54 54 54 53 53 54 53 54 53 54 56 56 56 54
35 44 48 50 51 51 52 53 54 54 53 53 54 55 55 54 54 53 54 53 52 52 54 54 54 53 52 55 56 57 57 56
32 36 45 48 51 51 52 53 54 54 53 53 54 54 54 54 54 54 54 54 52 52 54 54 55 54 54 55 56 56 56 55
31 32 34 43 48 51 52 52 53 54 54 54 54 54 53 53 54 54 54 55 53 54 54 54 55 54 48 47 52 56 55 52
33 33 34 37 42 49 51 52 53 54 54 53 53 54 54 54 53 53 53 53 54 54 55 54 54 55 45 44 44 56 53 50
35 35 37 38 40 44 50 50 51 53 53 52 53 53 53 53 53 53 54 54 54 55 55 54 54 55 43 43 42 50 46 43

GFSFLT1_sfc_dewp_081.txt.gz
Dewpoint
50 52 53 53 53 54 56 59 59 60 60 60 59 58 57 57 55 54 55 55 55 53 52 54 53 52 53 53 54 53 51 47
50 53 54 54 54 54 56 58 59 59 58 58 57 56 56 55 52 52 53 52 52 51 51 52 51 50 51 54 52 52 48 48
49 53 54 55 54 54 55 57 58 58 58 58 57 56 56 55 52 49 50 51 49 50 53 54 51 50 53 53 52 51 49 50
49 52 54 55 54 54 54 57 57 57 57 58 57 56 56 54 54 48 49 53 53 54 56 55 54 55 54 56 56 54 51 51
46 52 53 54 54 54 55 56 57 57 58 58 56 54 52 53 52 52 50 53 55 55 56 56 57 57 57 57 55 56 55 53
44 50 52 53 54 54 55 56 56 56 57 57 57 55 54 54 54 51 50 52 52 53 55 57 56 56 58 58 56 56 56 57
43 49 52 52 54 54 55 56 56 56 57 57 57 56 56 55 53 52 52 51 53 55 54 56 56 56 58 58 59 58 58 58
42 47 50 51 53 54 54 55 54 56 56 56 57 57 56 55 54 52 52 52 52 54 54 56 56 56 57 59 59 59 59 59
39 45 49 50 52 54 53 54 54 55 56 56 56 57 57 56 55 53 53 52 51 52 53 52 54 55 55 58 59 58 61 60
39 44 49 50 52 53 53 53 53 55 56 56 57 57 57 56 56 56 54 53 51 53 53 53 54 55 56 57 58 57 58 57
39 42 48 50 52 54 54 52 52 54 55 56 56 57 57 57 58 57 57 56 56 54 55 54 54 54 55 56 56 57 57 58
39 43 46 50 52 53 54 53 50 52 54 55 56 57 57 58 58 59 58 58 57 55 55 55 54 55 56 56 56 56 56 57
41 42 46 48 50 52 53 53 51 53 53 55 57 58 57 58 57 58 59 58 57 55 55 55 55 55 56 55 56 55 55 55
36 44 45 47 49 51 52 54 54 52 52 54 57 58 57 57 57 57 58 57 56 56 55 55 54 55 55 56 56 55 55 55
29 38 44 46 48 50 52 53 55 54 52 53 55 57 57 56 57 57 57 57 56 56 55 55 55 54 54 54 54 55 55 55
29 30 36 45 48 49 50 52 55 55 53 52 54 57 56 55 56 56 57 57 56 56 56 56 56 55 54 55 54 55 54 56
29 31 31 34 45 48 50 51 53 55 55 55 54 55 55 56 56 56 56 56 56 56 55 55 55 53 47 45 50 55 55 56
32 34 35 34 34 45 49 50 52 53 54 54 54 55 55 56 55 55 55 56 56 55 55 54 55 55 45 44 43 53 55 56
38 37 37 37 38 38 44 48 51 52 52 53 54 55 55 55 55 54 55 56 56 56 56 56 56 55 44 44 43 53 54 54

GFSFLT1_sfc_dewp_084.txt.gz
Dewpoint
47 50 52 53 54 56 60 60 60 61 61 59 58 57 57 57 56 56 56 57 58 57 57 58 57 57 55 54 52 52 50 50
48 52 54 55 56 55 58 59 59 59 59 57 56 55 56 55 55 55 55 55 55 56 57 57 56 54 54 53 52 50 48 49
48 52 54 55 55 55 58 57 58 58 58 58 57 55 55 54 54 53 54 53 54 54 54 53 53 52 53 53 51 51 50 52
48 52 54 56 55 55 57 57 58 58 58 57 56 55 54 53 52 52 53 53 52 51 52 50 51 51 51 52 52 51 50 51
46 52 53 55 55 56 55 56 57 57 58 56 55 53 51 50 49 50 51 52 52 49 50 51 53 52 53 52 54 52 54 50
43 52 53 54 56 55 55 55 57 57 58 56 55 53 50 51 49 48 49 52 53 54 53 54 53 57 56 55 55 55 57 56
38 52 53 53 55 55 55 55 56 57 58 56 55 53 51 52 49 47 48 51 53 53 55 56 56 57 56 57 56 56 56 56
39 50 51 52 54 55 55 55 55 56 57 56 55 53 52 52 50 49 48 50 51 52 54 56 55 55 57 57 57 57 57 56
40 47 51 52 54 54 54 54 54 56 56 57 57 55 53 52 52 51 49 49 49 52 53 54 54 55 56 57 56 55 57 57
38 44 51 52 53 55 54 54 54 55 55 56 56 56 55 54 53 52 51 50 49 50 53 53 52 54 54 54 56 55 55 56
35 39 51 51 53 55 55 54 54 54 55 55 56 56 56 55 55 53 52 51 50 51 52 52 53 53 53 53 54 55 55 56
40 41 49 51 53 54 55 53 53 54 56 55 55 56 57 57 56 55 53 52 52 51 51 51 52 52 52 52 52 52 54 54
42 43 46 50 52 53 54 54 52 54 55 56 56 56 56 57 57 56 55 53 52 51 51 50 51 51 52 52 51 50 51 53
39 44 45 48 50 52 53 55 54 53 54 55 57 57 56 56 56 57 57 55 54 53 52 52 51 52 51 52 51 52 52 52
32 38 45 47 49 51 53 55 55 53 53 54 55 56 57 56 56 56 57 58 57 56 55 54 53 53 53 52 52 53 53 53
31 32 36 46 48 50 52 53 56 55 52 52 54 56 56 56 57 57 56 57 57 56 55 55 54 54 53 53 52 53 53 54
37 37 37 38 41 48 50 52 54 55 54 53 52 54 55 56 56 56 56 56 56 56 55 55 54 53 47 45 50 53 52 52
39 39 40 41 41 44 50 51 53 55 55 55 54 53 54 56 55 55 55 56 56 55 55 54 54 54 46 44 43 52 53 53
41 43 45 46 46 46 46 44 52 53 53 54 55 55 53 54 55 55 55 55 55 55 55 55 55 54 45 43 42 50 52 52

GFSFLT1_sfc_dewp_087.txt.gz
Dewpoint
46 50 53 53 59 60 60 59 59 60 59 58 58 57 57 57 57 60 61 61 61 61 59 59 59 57 54 52 51 51 51 50
46 50 52 53 56 59 59 58 58 59 58 56 56 55 55 55 56 57 59 59 59 58 58 57 57 55 53 51 50 49 49 49
48 51 52 53 57 58 58 58 58 58 57 56 56 55 55 55 55 56 57 58 58 58 57 57 56 54 52 50 49 50 48 50
49 51 52 53 55 57 57 57 57 57 58 56 56 55 54 53 53 53 55 57 58 57 57 57 55 54 52 50 49 48 46 50
50 51 52 53 54 57 57 57 57 57 58 56 54 52 52 52 52 52 52 54 55 55 54 54 53 53 51 51 51 50 51 47
50 52 53 53 54 55 56 57 57 57 57 56 54 52 52 51 51 51 52 52 51 51 52 51 51 52 53 51 53 53 53 52
51 52 54 53 54 54 55 56 56 57 57 55 54 52 51 50 49 50 50 51 52 51 50 49 53 53 54 53 53 53 55 55
50 52 53 53 53 54 54 55 56 57 57 55 54 52 50 50 47 48 49 50 50 51 52 50 53 54 56 55 55 55 55 56
51 51 52 53 53 53 54 54 54 56 57 55 55 53 51 50 48 47 48 50 49 52 54 55 54 55 56 56 56 56 56 56
50 51 52 53 53 53 53 54 54 55 57 56 55 54 52 51 50 48 48 49 50 51 53 55 55 55 55 56 55 55 55 55
48 50 51 52 53 54 54 54 54 55 55 57 56 54 53 52 51 50 49 48 50 50 52 53 53 54 54 54 55 55 54 54
39 50 50 52 53 53 53 54 54 54 54 56 56 56 54 53 52 51 51 50 50 49 50 52 52 52 53 53 52 53 54 53
40 49 50 51 53 53 52 53 53 55 54 54 55 55 56 55 54 53 52 51 50 49 50 51 52 52 52 52 52 51 52 53
31 46 49 50 51 54 53 53 53 54 55 54 54 54 55 56 55 55 54 52 51 50 50 50 50 50 50 51 51 51 51 51
36 36 44 50 51 53 54 53 53 53 55 55 54 53 54 55 57 56 56 55 53 51 50 50 49 49 49 50 50 51 51 50
38 38 38 40 48 51 53 54 53 52 52 55 55 55 55 55 54 55 56 56 55 53 51 50 49 48 47 49 50 50 51 50
41 43 44 43 45 46 51 54 54 54 52 51 54 56 56 55 55 55 55 56 57 55 54 53 51 50 45 44 47 50 50 50
42 43 48 49 49 50 50 51 53 55 53 52 52 54 55 56 56 56 55 55 55 57 56 56 55 54 46 44 43 52 52 52
42 48 48 48 48 49 50 50 51 53 55 54 53 52 54 55 55 55 55 56 55 55 55 56 55 55 45 44 42 50 52 52

GFSFLT1_sfc_dewp_093.txt.gz
Dewpoint
42 53 56 58 58 59 59 59 58 58 58 57 56 56 58 58 59 62 62 62 62 62 61 58 56 54 51 51 49 50 51 52
41 54 56 58 59 59 59 58 59 59 57 56 56 56 56 56 55 56 60 62 61 62 60 58 56 51 51 52 49 50 51 52
46 54 56 58 59 59 59 58 58 57 57 55 55 55 55 55 56 56 57 61 62 61 61 58 56 50 51 52 49 50 50 53
49 53 56 58 58 58 58 58 57 57 56 55 54 54 54 54 54 56 57 60 61 61 60 58 57 52 53 52 49 48 49 49
49 52 55 57 58 58 58 58 57 56 55 54 54 53 51 53 53 54 57 59 60 60 60 58 57 53 53 53 51 49 51 49
48 51 53 57 58 58 57 57 56 55 55 54 53 53 52 53 53 54 56 57 58 59 59 58 57 53 55 54 52 52 52 51
46 50 53 56 57 57 57 55 55 55 55 54 53 53 52 52 52 53 53 55 56 57 58 57 56 54 55 54 52 53 53 52
44 50 52 55 56 56 56 55 55 55 55 54 53 53 52 51 52 53 52 53 54 55 57 55 55 53 55 55 54 53 52 52
46 50 52 55 55 55 55 55 54 55 55 54 54 53 52 52 52 53 53 53 53 54 54 55 55 55 55 54 54 53 54 53
46 50 52 54 55 55 55 55 55 54 53 54 54 53 52 51 51 52 53 53 52 52 52 52 54 54 55 55 54 53 53 53
47 51 52 53 54 55 55 55 55 54 53 54 54 53 52 51 50 51 51 51 51 51 51 51 51 53 54 55 54 53 53 53
51 51 52 53 54 54 54 54 55 55 54 53 54 53 52 51 51 50 50 51 51 51 51 51 51 51 53 53 52 53 52 51
52 52 53 53 53 53 54 54 54 55 55 54 54 54 53 52 51 50 49 50 50 50 51 51 51 52 52 52 52 53 52 51
51 52 53 53 53 53 53 53 53 54 55 54 53 54 54 52 52 51 49 49 49 50 50 50 51 51 53 53 52 52 53 53
48 50 53 54 55 55 55 55 55 54 54 55 54 55 54 53 53 52 51 50 48 48 49 49 50 51 51 52 52 52 51 52
46 48 49 50 51 53 54 55 55 55 55 54 55 55 55 55 54 53 52 52 50 49 49 49 49 49 49 50 50 50 50 50
45 46 46 47 49 48 49 51 53 55 55 55 55 55 55 54 55 54 54 53 52 51 50 49 49 48 44 42 46 49 49 49
42 42 42 43 45 46 46 47 49 52 54 55 55 55 55 55 55 55 56 55 54 53 52 51 50 50 43 43 42 48 48 49
40 39 39 39 42 43 44 44 45 45 45 46 46 48 50 54 55 55 55 55 56 55 55 54 53 52 44 42 41 47 48 48

GFSFLT1_sfc_dewp_096.txt.gz
Dewpoint
30 46 52 57 59 59 58 60 59 57 58 57 57 57 57 59 62 62 62 63 62 62 61 59 59 56 54 53 50 52 53 53
26 34 50 57 58 58 58 59 59 59 58 57 57 57 57 55 56 59 62 62 62 62 61 58 58 56 54 52 50 51 53 53
29 41 55 57 57 58 58 58 59 59 59 57 56 56 56 54 54 56 57 60 62 62 60 58 57 55 54 51 50 51 52 53
35 50 55 57 57 58 58 58 58 58 57 56 55 55 54 53 54 53 54 57 60 62 60 58 57 55 54 52 50 50 51 53
34 48 54 57 57 58 58 58 58 57 56 55 53 53 52 52 52 53 56 56 59 60 60 58 57 56 55 53 50 50 51 51
42 48 53 56 58 58 58 57 57 57 55 55 53 51 53 53 52 54 56 57 58 61 60 58 57 54 55 54 51 50 52 52
41 49 52 56 58 57 57 57 57 56 55 53 52 51 52 52 53 53 55 57 58 59 59 59 57 55 54 54 53 51 53 52
35 49 52 56 57 56 56 56 56 56 55 53 52 52 52 52 52 53 53 54 55 57 58 58 57 55 55 54 54 54 54 53
30 46 51 55 56 56 56 55 55 55 55 53 53 52 52 52 52 53 54 54 55 57 57 56 55 55 55 55 53 54 54 54
33 43 50 54 55 55 55 55 55 55 54 54 53 52 52 52 51 52 54 54 54 54 55 54 53 53 55 54 54 53 54 54
42 44 50 54 55 55 56 55 54 55 55 54 53 53 52 51 52 51 52 53 53 53 53 54 54 53 54 54 54 53 53 53
50 51 52 54 55 54 54 54 54 54 54 54 53 52 52 51 51 50 51 51 51 53 53 52 53 53 54 54 54 54 52 52
52 52 53 53 54 53 53 54 54 54 54 54 54 53 52 51 50 50 50 51 51 51 52 52 51 52 53 54 54 54 54 52
52 53 52 53 53 53 54 54 55 55 55 53 54 54 52 51 51 50 49 50 50 50 51 51 52 52 51 52 52 52 52 53
49 50 52 53 53 53 54 54 55 55 55 54 54 54 54 52 51 51 49 49 49 50 50 51 51 51 52 52 51 51 52 52
44 46 47 48 50 52 56 56 55 55 55 55 54 54 54 53 52 52 51 50 49 49 49 50 50 51 51 51 52 52 51 51
41 41 42 44 45 46 48 48 50 55 55 54 55 55 55 55 54 53 52 51 50 49 48 49 49 49 45 44 48 51 51 51
39 39 38 40 42 43 43 44 46 47 48 48 50 53 55 55 55 54 53 52 52 51 50 50 49 49 43 42 42 49 49 50
37 36 36 36 38 40 40 41 41 41 41 41 42 44 46 47 51 54 55 55 54 53 53 52 52 51 44 42 41 47 48 48

GFSFLT1_sfc_dewp_099.txt.gz
Dewpoint
34 34 48 55 58 59 59 61 61 61 63 63 63 62 62 63 63 63 63 63 63 63 62 61 60 58 56 56 56 57 56 55
35 37 38 52 58 59 59 60 60 60 61 60 60 60 61 61 61 62 63 63 62 62 61 60 60 58 57 56 56 55 56 56
34 34 38 50 56 58 59 60 59 60 60 60 59 59 59 59 60 59 62 63 63 62 60 59 59 58 56 55 55 54 55 55
34 37 42 49 54 58 58 59 59 60 60 59 57 57 56 56 57 58 58 59 61 62 61 60 59 58 56 54 54 54 53 55
34 36 41 51 55 58 58 59 59 60 59 57 57 55 55 55 56 57 57 58 60 61 61 60 58 58 56 55 53 54 54 53
34 36 39 48 55 58 59 59 58 59 58 58 56 55 55 56 56 56 57 58 58 59 60 59 58 57 57 55 54 54 54 54
36 37 42 51 57 58 59 59 58 58 57 57 56 55 55 54 54 54 55 56 57 58 60 60 58 58 57 56 55 53 53 54
40 36 47 54 57 58 58 58 57 57 57 56 56 56 55 54 54 54 54 56 57 58 60 59 58 58 57 56 55 54 55 55
45 40 49 54 57 58 57 57 57 56 56 55 56 56 55 54 54 53 55 55 55 58 59 59 58 57 57 56 55 55 54 55
49 46 44 54 56 57 57 57 56 56 55 55 56 55 55 54 55 55 55 56 56 58 57 57 57 56 56 55 54 53 54 55
49 48 44 53 56 57 57 56 55 55 55 55 56 55 55 55 55 55 55 55 56 56 56 55 55 55 55 55 54 53 53 54
52 52 53 54 55 56 56 55 55 55 55 55 56 55 55 55 55 55 55 55 55 55 55 55 54 54 55 55 53 53 52 51
53 53 54 54 54 55 54 55 54 55 55 56 56 55 54 54 54 54 55 55 54 55 55 54 54 54 55 55 54 53 52 51
48 51 53 53 53 54 54 55 55 55 56 55 55 55 54 54 53 53 54 54 54 54 54 53 53 54 54 55 54 54 54 53
43 44 46 49 53 54 54 55 55 55 55 54 54 55 54 54 54 53 53 53 53 53 54 54 55 53 53 53 54 54 54 54
40 40 43 44 46 48 50 54 56 56 55 55 55 55 55 54 54 54 53 52 52 53 53 53 53 53 53 53 52 52 53 53
38 38 38 41 43 44 44 46 52 55 56 55 55 55 55 55 54 55 54 53 52 52 51 52 52 51 45 45 50 53 52 52
37 37 36 36 40 42 41 41 42 43 44 44 46 49 50 52 55 54 54 54 54 53 52 52 52 52 43 43 43 52 52 53
35 35 35 35 38 39 40 39 39 38 38 38 40 42 42 44 45 46 47 50 54 54 53 53 52 44 37 40 41 49 51 51

GFSFLT1_sfc_dewp_102.txt.gz
Dewpoint
31 33 35 40 50 56 59 61 64 64 64 64 62 63 63 63 63 63 64 63 63 63 63 61 60 58 58 59 58 59 59 58
31 34 38 39 47 55 58 61 63 62 63 62 62 62 62 63 63 63 63 64 63 63 62 61 59 58 57 57 57 57 58 59
32 33 36 41 44 53 57 58 61 62 62 61 61 61 61 61 62 63 63 64 64 63 62 61 60 58 57 57 57 56 57 58
31 33 35 39 44 51 55 57 60 61 61 60 60 61 61 61 61 61 62 63 63 62 62 61 59 59 57 58 58 58 56 57
30 31 34 37 43 49 53 56 59 61 61 60 60 57 57 58 59 59 60 62 62 62 62 61 60 59 57 58 58 57 56 54
38 35 34 35 39 49 54 56 57 60 61 60 59 58 57 57 58 58 59 59 61 61 61 61 61 59 58 57 58 58 57 55
44 41 38 37 38 48 56 56 57 59 60 60 60 59 58 56 57 57 57 57 57 58 60 61 60 60 59 57 56 57 57 57
46 44 40 38 41 53 56 56 57 59 59 59 60 59 59 57 56 55 55 55 56 57 59 61 59 59 59 57 56 56 57 56
50 48 45 40 48 54 56 56 56 58 58 59 59 59 58 57 56 54 55 55 56 57 59 60 60 59 58 57 56 56 56 56
51 51 48 43 50 55 57 56 56 57 57 57 58 59 58 56 56 57 56 56 55 57 59 59 59 59 59 59 58 56 56 56
49 53 50 44 52 56 58 57 57 57 57 57 58 58 58 57 57 56 57 57 57 58 58 58 58 57 57 57 56 55 55 55
46 51 53 50 52 56 57 57 56 56 56 57 58 58 58 57 56 57 56 57 57 57 57 57 56 56 56 55 55 54 54 54
43 46 52 53 53 55 56 56 56 56 57 57 57 58 57 56 56 57 56 55 56 56 56 56 55 56 56 56 55 54 53 53
42 43 46 51 54 55 55 56 56 56 56 56 56 57 56 55 55 56 56 55 55 55 55 56 55 55 56 55 55 54 54 53
39 40 43 45 48 53 55 55 56 56 56 56 55 55 55 55 55 55 55 55 54 54 54 55 56 56 55 55 55 54 54 53
37 39 40 42 44 45 47 54 55 56 56 56 55 55 55 54 54 54 55 55 54 54 54 55 55 55 54 55 55 55 54 55
36 37 37 40 41 42 43 44 46 48 49 50 55 56 55 55 55 54 54 54 54 54 53 54 55 53 47 46 51 55 55 54
34 35 35 38 40 41 40 40 41 42 42 43 44 47 49 50 54 55 55 55 55 53 53 53 53 51 37 41 43 54 55 55
34 33 34 36 38 37 38 38 39 37 37 38 39 40 41 43 44 45 47 49 47 50 48 53 44 37 36 36 38 47 51 52

GFSFLT1_sfc_dewp_105.txt.gz
Dewpoint
27 25 26 31 36 45 52 60 65 66 64 64 62 62 63 62 62 62 63 64 65 64 64 63 64 63 62 61 60 61 61 61
30 32 31 32 38 46 52 59 64 64 63 62 61 62 62 63 63 63 63 62 63 64 64 62 61 60 60 60 60 59 60 60
29 31 34 38 40 44 52 55 60 63 63 61 60 62 62 62 63 62 62 61 63 63 63 61 60 58 58 58 58 58 58 60
29 31 35 37 39 44 46 53 57 62 62 61 61 62 61 60 61 61 62 62 63 63 63 61 60 59 57 58 58 58 57 58
28 29 32 36 42 45 44 51 54 59 62 60 61 58 59 60 60 60 61 62 62 63 63 61 60 59 58 58 58 58 58 56
41 40 38 33 38 44 49 48 52 57 61 61 61 59 59 59 59 60 60 61 61 62 62 62 60 60 59 59 59 60 59 57
44 44 43 39 38 42 48 49 51 56 60 62 62 60 58 57 58 58 59 60 60 60 62 62 61 60 59 59 59 59 58 58
47 48 47 43 41 42 47 49 50 55 60 61 61 60 59 59 58 57 56 58 58 60 61 62 61 60 60 59 58 58 58 57
47 51 52 48 45 42 43 45 51 53 59 60 61 60 59 58 58 55 55 56 57 58 59 61 61 60 59 58 58 58 58 58
47 49 51 54 48 43 47 51 52 53 59 60 61 61 59 58 58 57 56 57 56 58 58 58 60 60 59 58 57 56 57 57
45 46 48 51 50 47 54 55 53 58 59 59 60 59 60 58 58 57 57 57 56 57 58 58 60 60 59 58 57 56 57 57
42 42 44 48 52 52 55 56 56 58 58 58 59 60 59 58 57 57 57 58 56 56 57 58 58 58 58 58 58 57 56 56
40 39 39 43 47 56 56 57 58 58 57 58 58 60 59 58 56 57 57 57 56 56 57 57 57 57 57 56 55 55 55 54
38 37 37 40 44 50 56 57 57 57 57 58 59 59 58 57 56 57 56 55 56 55 56 56 55 56 56 56 56 55 55 55
39 36 35 37 41 44 52 56 56 56 57 57 58 58 58 57 55 56 56 56 55 55 55 56 56 55 55 55 55 55 55 55
37 36 36 35 40 41 44 47 55 56 56 57 57 58 58 57 55 55 56 56 55 55 55 56 56 56 54 55 55 55 54 54
34 36 35 34 38 38 40 41 43 46 46 47 54 56 55 56 55 55 55 55 54 55 55 56 56 54 38 44 51 54 54 54
34 33 35 35 37 38 38 38 39 40 40 41 44 47 48 49 54 54 54 55 55 55 55 55 49 40 37 38 40 53 56 55
34 32 33 35 36 37 37 37 37 37 37 38 40 41 42 44 45 46 46 45 44 44 44 43 40 35 35 36 36 50 52 51

GFSFLT1_sfc_dewp_108.txt.gz
Dewpoint
30 33 28 26 34 45 62 65 66 67 66 66 65 65 64 64 63 64 65 64 65 65 64 64 64 64 63 62 61 62 61 61
31 38 39 39 41 46 57 64 66 66 65 64 63 63 64 64 63 63 63 63 64 65 64 63 63 62 62 61 61 61 60 61
31 36 39 43 42 48 54 62 66 65 64 64 63 63 64 63 63 63 63 64 64 64 63 62 61 60 60 60 60 59 59 61
32 34 38 47 47 51 49 55 64 64 64 63 62 63 63 62 62 62 62 63 63 63 63 61 60 59 58 59 59 58 57 59
33 35 38 43 48 52 48 51 59 63 64 62 61 61 60 60 61 60 61 62 62 63 63 61 59 59 58 58 58 58 58 57
41 42 43 43 46 48 53 49 53 60 63 61 61 61 61 60 61 60 60 62 62 63 62 61 59 58 58 58 58 58 59 57
46 48 49 47 48 48 50 52 51 56 63 62 61 61 60 60 60 60 60 60 61 62 62 61 59 58 58 58 58 58 58 58
46 47 49 52 54 54 49 46 47 53 61 62 62 62 61 60 59 59 59 59 59 61 61 61 61 59 59 59 59 59 58 58
45 46 48 50 52 53 54 44 45 51 59 61 61 62 61 60 60 59 58 58 59 60 61 61 61 60 59 59 59 58 58 58
43 44 45 46 48 51 53 53 44 50 56 61 61 62 61 60 60 59 59 59 58 59 60 61 60 60 59 59 58 58 58 58
41 41 41 42 46 48 52 54 45 53 58 60 61 61 61 61 60 59 59 59 57 58 58 59 60 60 59 58 58 57 57 57
39 39 38 39 42 45 49 56 55 59 60 61 62 60 61 61 59 59 59 58 57 57 57 58 59 59 59 58 57 56 56 56
38 37 37 37 40 43 45 54 58 59 60 60 60 60 60 60 59 59 58 57 57 57 58 58 58 58 58 58 57 56 56 56
38 37 36 36 38 39 41 47 57 58 58 58 59 60 60 59 58 58 57 57 57 57 57 57 57 57 57 57 56 56 56 55
35 36 36 36 37 38 39 41 46 57 57 58 58 59 59 59 59 57 57 57 56 56 56 57 57 56 56 56 56 55 55 55
33 34 35 36 36 37 38 39 41 45 51 56 57 59 59 59 58 57 57 56 56 56 56 56 56 55 52 56 56 55 55 55
33 33 33 35 36 35 37 37 38 40 41 42 46 53 56 57 57 56 57 56 55 55 55 56 55 42 38 39 49 55 54 54
33 33 33 34 36 37 36 36 37 37 37 39 40 43 45 48 54 54 53 53 55 54 54 45 40 38 37 38 38 53 54 51
33 32 32 34 35 37 36 36 35 35 36 36 38 39 40 40 42 42 42 42 42 42 41 40 38 35 35 37 37 51 43 39

GFSFLT1_sfc_dewp_111.txt.gz
Dewpoint
26 28 28 26 26 42 61 63 65 65 65 65 64 64 64 64 64 64 64 64 64 64 63 62 63 62 63 62 61 61 61 61
27 28 30 29 28 42 62 63 65 65 65 64 63 63 64 64 64 63 63 63 64 63 63 62 62 62 62 62 61 61 60 60
31 34 33 34 32 36 63 63 65 64 64 63 63 62 62 62 62 63 63 63 63 63 62 61 62 61 61 61 61 59 60 61
28 29 32 36 37 36 61 64 65 64 64 63 63 63 62 61 60 60 62 62 63 63 62 61 61 60 60 60 60 58 57 60
40 43 44 41 41 44 50 64 64 64 64 62 62 61 61 61 60 60 61 62 62 62 61 60 59 58 58 59 59 59 58 58
46 47 49 50 52 53 53 50 64 64 63 62 61 61 61 60 60 60 61 61 61 62 60 59 58 58 58 58 58 59 59 58
45 46 46 47 48 49 51 53 52 63 63 62 61 61 61 59 60 59 60 61 61 62 61 59 58 58 58 57 58 58 58 58
43 43 43 43 44 46 48 50 52 53 62 61 60 60 61 59 59 59 59 59 60 61 61 59 59 58 57 57 57 58 58 58
41 41 41 40 41 43 45 47 49 52 61 61 60 60 61 60 59 60 59 59 59 60 61 60 59 58 58 57 58 58 57 58
39 38 38 38 39 41 43 46 49 54 55 62 60 62 61 60 60 60 59 59 58 60 60 60 60 58 58 58 58 58 57 57
37 37 37 37 39 40 42 46 49 58 55 61 61 62 61 61 60 59 58 58 58 58 60 59 59 59 59 58 57 58 58 57
36 36 36 36 38 39 41 43 47 58 59 60 61 61 60 61 60 59 59 58 57 57 57 59 59 59 59 58 58 57 57 57
34 35 35 36 37 38 39 41 44 48 58 58 59 60 61 60 59 58 58 57 57 56 57 57 59 59 59 58 57 57 57 56
34 34 34 35 36 37 38 39 42 44 54 57 58 58 59 59 59 57 57 57 57 57 57 57 58 59 58 58 57 56 56 56
33 34 34 35 37 37 37 38 39 42 45 49 54 58 59 59 58 57 57 57 57 57 58 57 57 57 57 57 57 57 56 56
33 34 34 35 36 37 37 37 38 39 40 42 44 47 58 58 58 57 57 57 57 57 57 57 57 57 53 57 56 55 55 55
33 33 33 34 35 36 36 36 36 37 38 39 41 42 44 53 57 57 56 56 56 56 56 55 46 42 38 40 52 55 55 55
32 32 32 33 34 35 35 36 36 35 36 37 38 38 40 41 43 50 52 54 53 52 48 44 40 39 37 39 39 55 54 50
32 32 32 33 35 35 35 35 35 34 34 35 36 37 37 38 38 36 37 39 39 39 38 38 36 35 36 37 41 44 40 38

GFSFLT1_sfc_dewp_114.txt.gz
Dewpoint
26 27 27 27 27 50 61 64 65 66 65 66 65 64 64 65 64 64 64 65 65 64 63 62 63 63 62 62 61 61 61 60
26 27 27 29 29 41 60 62 64 65 65 64 64 63 63 63 64 64 63 64 64 64 63 62 62 63 62 62 62 61 60 61
27 28 29 32 33 42 58 61 64 65 65 64 64 63 62 63 63 63 63 63 63 63 62 62 62 62 62 62 61 60 60 61
42 48 50 50 52 52 58 61 64 64 64 64 63 61 61 60 61 62 62 63 63 63 62 62 61 61 61 61 61 60 58 60
47 47 47 47 48 50 52 57 64 64 64 63 63 62 61 61 62 62 62 63 63 63 62 61 61 61 61 60 61 60 58 57
43 43 44 43 45 47 48 51 55 64 64 63 63 62 62 60 61 60 61 62 62 62 61 60 59 58 58 58 59 59 59 58
40 40 40 41 42 43 45 47 49 54 58 63 63 62 61 60 60 60 60 61 60 61 61 60 58 57 56 57 58 58 58 58
37 37 37 38 39 41 43 44 46 49 51 58 63 62 61 60 60 60 60 60 60 61 60 59 58 58 57 57 57 58 58 58
36 36 36 36 38 39 41 42 45 48 50 52 62 62 61 61 60 60 60 60 60 60 61 60 58 57 58 57 56 57 58 58
36 36 36 36 37 38 40 41 43 46 51 57 58 62 61 60 60 60 60 60 60 60 61 59 58 57 57 57 56 57 58 58
34 35 36 36 36 38 39 40 41 45 48 56 58 61 61 61 60 60 59 59 59 59 60 59 59 58 58 57 56 57 57 57
34 34 35 36 37 37 38 39 40 42 45 54 60 61 61 60 60 60 59 59 59 59 59 60 59 57 58 57 57 57 57 57
34 34 35 35 36 37 38 39 40 41 44 49 58 59 59 60 60 59 59 59 59 59 59 59 59 58 58 57 57 57 57 57
34 34 34 35 36 36 37 38 38 39 41 44 49 50 59 59 59 59 59 58 58 57 58 58 58 59 58 58 58 57 57 57
32 33 33 35 36 36 36 37 38 38 39 41 42 45 49 59 58 58 58 58 57 57 57 57 58 59 59 58 57 57 57 56
31 31 32 34 34 35 35 36 37 37 37 38 40 41 43 46 57 57 58 57 57 57 57 57 57 58 56 58 57 57 56 56
30 30 31 33 34 34 35 34 35 36 36 36 38 39 40 40 43 53 57 57 57 57 57 56 51 45 38 40 52 56 56 55
30 30 31 32 33 34 33 33 34 34 35 35 36 37 38 38 38 39 40 44 49 48 47 46 42 39 37 39 39 56 55 54
29 30 30 31 32 33 34 33 32 32 32 33 34 35 36 37 37 35 35 35 36 37 36 37 37 37 36 38 40 45 41 40

GFSFLT1_sfc_dewp_117.txt.gz
Dewpoint
26 27 25 24 49 61 64 66 66 67 66 65 65 64 65 66 66 66 65 65 64 63 63 62 62 62 62 62 61 61 61 60
27 28 28 29 28 40 62 64 66 66 65 65 65 64 64 64 65 65 65 65 64 63 63 62 62 63 62 62 62 61 60 61
39 49 50 51 51 44 52 62 64 65 65 65 65 65 63 64 62 63 64 64 64 63 63 62 62 63 62 62 61 60 61 60
46 45 44 46 47 49 53 60 62 64 65 65 62 62 62 61 62 63 63 63 63 63 62 62 62 62 62 62 62 60 59 60
43 42 42 43 43 45 48 51 59 64 64 64 62 62 62 62 62 63 62 63 62 62 62 62 61 62 61 62 61 61 60 58
38 39 40 41 41 43 45 47 50 53 59 64 63 62 62 60 61 62 62 62 62 62 62 61 61 62 62 61 60 60 59 58
36 37 37 38 39 41 43 45 47 50 53 55 63 63 61 60 60 61 61 61 61 62 62 61 61 61 59 59 59 60 59 58
35 36 36 37 38 39 41 43 44 46 50 52 54 63 62 61 61 61 61 61 61 61 61 61 61 59 58 58 59 59 58 58
34 35 36 36 37 38 39 41 42 44 46 49 52 55 63 62 61 61 61 61 61 61 61 61 60 58 58 58 58 57 58 58
34 35 36 36 37 38 39 40 41 42 44 46 49 56 60 61 61 61 61 61 60 60 61 61 59 58 59 57 57 56 57 57
35 35 35 36 36 37 38 39 39 41 42 44 48 55 58 62 61 60 60 60 60 59 61 60 59 58 58 57 56 56 56 57
34 34 35 36 36 36 37 38 39 39 41 44 47 50 59 62 61 60 60 60 59 59 60 59 58 58 57 57 56 56 56 56
33 33 34 35 35 36 36 37 38 39 40 42 44 46 50 61 60 60 59 59 59 59 60 60 59 58 57 57 56 56 56 55
31 32 33 34 35 35 35 36 37 37 38 40 41 43 45 48 58 59 59 59 59 59 60 59 59 58 57 57 57 56 56 56
30 30 32 33 34 34 34 35 35 36 37 38 38 40 42 43 48 58 59 59 59 59 59 59 59 58 57 57 57 57 57 57
29 30 30 32 33 33 33 34 34 34 35 36 37 38 40 40 42 44 55 58 58 58 58 59 58 58 58 58 58 57 57 57
28 28 29 30 32 31 32 32 32 32 32 33 35 36 37 38 38 39 38 41 52 57 57 57 56 47 39 45 54 57 56 56
27 28 29 30 31 32 31 30 31 31 31 31 32 34 35 36 36 36 36 35 37 38 42 44 41 38 37 39 43 57 56 56
25 27 28 29 30 31 32 29 29 29 29 29 31 32 33 34 35 34 35 36 34 34 35 36 37 35 38 39 38 50 44 41

GFSFLT1_sfc_dewp_120.txt.gz
Dewpoint
26 27 25 42 57 63 65 66 66 65 64 64 64 64 64 64 64 64 64 65 64 64 63 62 63 63 62 62 61 61 61 60
34 47 48 38 38 33 61 65 66 66 65 64 64 63 64 65 65 64 64 64 64 63 63 62 63 63 62 61 62 61 60 61
45 45 45 45 46 47 49 59 65 66 66 65 64 64 65 65 65 65 65 65 64 64 63 62 63 63 63 62 62 60 60 61
42 42 42 42 43 44 46 50 61 65 66 66 63 63 62 63 63 64 64 65 64 64 63 63 63 63 63 62 62 61 59 60
37 38 40 40 40 42 44 47 52 60 65 65 63 63 62 63 63 64 64 64 64 64 63 63 63 63 63 62 62 62 60 58
36 36 37 38 39 40 43 46 50 52 55 64 63 63 63 61 62 63 64 63 63 63 63 62 62 62 62 61 62 61 61 59
36 36 37 37 38 39 41 43 45 49 52 54 58 62 60 60 61 62 62 62 62 62 62 62 62 62 62 62 61 61 60 60
35 36 36 37 37 38 40 42 44 45 47 50 52 55 59 61 61 62 61 61 61 62 62 62 62 62 62 61 61 60 60 59
36 36 36 36 37 38 38 39 41 42 44 45 48 51 55 59 62 61 61 61 61 62 62 62 62 61 61 60 60 60 60 59
35 36 36 36 36 37 38 38 39 40 41 44 46 49 52 56 60 61 61 60 58 59 61 61 61 61 60 59 60 59 58 58
34 35 35 36 36 36 36 37 38 39 40 41 44 46 48 51 57 62 60 60 60 61 61 61 61 60 59 59 59 58 57 57
34 34 34 35 35 35 35 36 37 37 38 41 42 43 45 48 58 60 61 59 60 60 60 60 60 59 59 59 58 57 56 56
33 33 33 33 34 34 34 35 35 37 38 39 40 42 43 45 47 53 60 59 59 59 59 60 59 59 59 58 57 56 55 55
32 31 31 32 32 32 33 34 34 34 35 37 38 39 40 41 44 46 54 59 59 59 60 60 59 58 58 58 57 56 56 55
29 29 30 31 31 31 32 32 33 34 34 34 36 37 38 39 41 42 43 47 58 59 59 59 59 59 58 58 57 56 55 55
28 28 28 30 31 30 30 31 31 32 32 33 34 35 37 37 39 39 40 40 42 44 58 59 59 59 58 58 57 56 56 55
25 26 27 28 29 31 28 29 30 30 30 31 33 33 34 35 36 37 37 38 38 38 40 45 51 44 40 45 53 56 57 56
24 25 26 27 29 30 30 27 28 28 29 29 30 31 32 33 34 34 35 36 36 36 36 36 37 37 37 43 43 57 56 56
23 24 25 27 27 29 30 27 26 27 27 27 28 29 30 31 32 32 33 34 34 34 34 35 35 35 36 38 41 50 46 40

GFSFLT1_sfc_dewp_123.txt.gz
Dewpoint
29 31 32 32 43 61 64 65 65 65 64 65 65 65 65 66 65 65 66 64 65 66 65 65 65 64 64 64 63 63 62 62
36 47 48 41 47 54 63 66 66 64 63 64 63 63 64 65 64 65 65 66 65 66 65 64 64 64 64 64 63 62 62 62
39 44 45 46 47 48 50 60 66 66 64 64 64 64 64 66 65 64 65 65 66 66 65 64 64 64 64 64 62 61 62 62
39 40 42 43 44 46 48 51 56 66 66 66 66 66 66 65 65 64 64 65 66 66 65 64 64 64 63 62 62 62 60 62
38 38 39 41 42 44 47 52 55 58 65 66 65 64 63 64 64 64 64 65 65 66 65 64 64 64 64 63 64 64 63 60
37 38 39 39 40 42 46 50 51 53 58 62 65 64 66 65 65 64 65 65 66 66 65 65 65 64 64 63 63 64 63 61
37 37 37 38 39 41 44 46 46 49 51 53 56 63 64 64 65 64 63 65 65 65 64 64 64 64 64 63 64 64 63 62
37 36 37 37 37 39 40 42 43 45 47 48 50 52 55 59 64 64 64 64 63 64 64 64 64 64 63 64 63 64 63 62
36 37 36 36 37 37 38 40 41 42 44 45 47 50 52 54 57 61 63 63 64 63 63 64 64 63 63 63 63 63 63 62
35 35 36 37 38 38 38 39 39 41 42 44 45 47 48 49 52 56 61 64 64 64 64 63 64 63 63 62 62 62 61 61
33 34 34 35 36 37 37 38 36 38 39 41 42 43 45 47 50 53 58 62 63 63 63 63 63 63 62 61 60 61 60 61
32 33 34 32 33 34 35 35 35 36 37 39 40 40 42 44 46 47 50 59 62 61 61 61 61 62 61 60 59 60 60 59
32 32 33 33 31 32 33 34 35 36 36 37 39 39 40 41 42 44 45 48 61 61 61 61 61 61 60 59 59 59 59 58
31 30 31 32 32 30 31 33 33 34 35 36 36 37 38 39 40 41 43 44 47 58 60 60 60 60 60 59 59 59 58 58
27 28 29 30 32 29 30 31 32 32 33 34 35 36 36 37 38 39 40 41 42 43 46 57 59 59 59 59 59 58 58 58
24 25 26 28 30 29 27 29 31 31 31 32 33 34 35 36 36 37 37 38 39 41 40 41 41 44 39 40 55 58 57 57
22 23 24 26 28 29 26 26 29 29 29 30 31 32 32 34 35 35 35 35 35 36 37 38 37 37 36 37 41 56 57 56
23 24 24 25 26 29 28 25 26 27 27 27 28 30 31 32 32 33 34 34 33 33 32 34 34 34 35 37 38 49 56 56
23 23 23 25 25 27 29 28 25 25 26 26 27 28 29 30 31 31 32 33 32 32 32 31 32 31 34 35 36 38 37 36

GFSFLT1_sfc_dewp_126.txt.gz
Dewpoint
20 19 17 29 39 39 37 51 64 65 64 65 63 63 65 64 64 64 65 65 67 67 65 66 67 66 66 66 65 65 64 63
21 23 31 45 47 47 40 48 62 64 63 61 61 61 62 63 63 64 65 65 65 66 66 66 66 65 65 66 65 64 64 64
36 40 43 46 47 48 49 52 56 63 63 60 60 60 61 61 62 63 64 65 66 65 66 65 65 65 65 65 65 63 64 64
38 39 42 45 46 48 48 52 59 63 65 63 61 61 62 62 62 62 63 64 65 67 66 66 65 65 64 65 64 63 62 63
38 39 40 42 43 45 49 52 55 63 65 64 64 62 62 63 63 63 63 65 64 65 66 65 65 65 64 63 63 64 63 61
37 38 39 40 42 42 45 50 53 57 63 62 66 64 63 64 64 65 66 65 65 64 65 66 66 65 65 65 64 64 64 63
38 37 38 40 42 42 43 45 47 51 55 56 60 64 65 64 65 65 65 65 66 66 66 67 66 66 65 66 65 65 64 64
36 36 37 38 40 42 43 42 43 46 50 51 53 55 58 59 61 63 65 65 65 65 66 65 65 65 65 66 66 64 64 64
33 35 36 36 38 41 40 40 42 43 45 47 49 51 53 54 54 56 58 61 65 65 65 65 65 65 65 66 66 65 66 65
33 34 34 35 37 37 39 39 39 41 43 45 46 47 50 51 53 56 57 59 60 65 65 64 64 64 64 65 65 64 64 65
31 32 34 33 35 37 38 38 38 39 40 42 43 44 45 47 48 49 49 52 54 60 64 64 63 63 63 64 63 64 63 63
30 31 32 34 31 33 36 36 37 38 38 39 40 41 43 43 43 43 45 47 51 55 62 63 63 63 63 63 63 62 62 62
31 31 31 32 30 31 33 34 36 37 36 37 38 39 39 40 40 41 42 43 45 47 51 62 61 61 62 62 61 61 61 60
30 30 30 30 32 31 33 33 34 36 36 36 36 37 37 38 38 38 39 40 41 43 44 45 48 59 60 60 61 60 60 60
28 30 31 31 32 32 32 33 33 35 34 35 35 35 36 37 37 37 37 37 37 38 40 40 40 39 38 40 44 57 60 60
24 24 26 28 30 31 30 31 31 32 32 33 35 36 35 35 36 37 37 36 35 35 36 36 36 36 35 37 40 46 55 59
23 24 24 25 27 28 27 27 29 30 30 31 33 34 35 35 35 35 35 35 35 36 35 34 34 33 34 36 38 46 50 57
24 24 25 25 26 27 27 27 28 29 29 29 30 32 33 34 34 34 34 34 34 34 33 34 33 33 33 34 36 40 38 38
24 25 24 26 26 27 27 27 27 28 28 28 28 29 30 32 32 33 33 34 33 33 33 32 33 31 32 32 34 36 36 35

GFSFLT1_sfc_dewp_129.txt.gz
Dewpoint
35 35 33 26 28 37 45 47 52 63 66 67 65 65 64 64 62 63 66 67 68 68 67 67 67 66 66 67 66 66 64 62
36 39 40 39 43 45 46 48 53 53 63 66 64 63 64 64 63 63 65 65 68 68 66 66 67 66 66 67 66 65 64 64
35 38 40 42 43 44 46 46 49 51 59 63 65 63 63 63 63 64 64 65 68 66 66 65 66 65 66 66 65 65 65 65
35 36 38 40 42 44 44 46 49 51 56 61 62 63 63 62 62 61 64 65 66 66 66 66 66 65 65 65 65 64 62 64
33 36 36 38 41 42 43 45 49 53 58 61 63 61 59 60 60 61 61 65 64 66 66 66 66 66 65 65 64 64 63 62
31 35 36 38 40 41 42 44 47 50 53 58 65 63 61 60 61 62 64 65 65 65 67 66 67 66 66 66 65 64 64 62
31 32 35 36 39 41 42 43 44 49 51 53 60 65 63 62 63 64 66 67 66 66 66 66 67 67 67 66 66 64 64 64
32 31 33 34 36 38 42 42 42 45 48 50 53 56 60 60 58 59 64 65 65 65 66 67 67 67 67 66 66 65 65 64
32 31 33 34 34 38 40 42 42 43 45 47 49 51 54 56 56 58 58 60 62 66 67 66 66 65 65 65 66 65 65 65
33 33 32 33 34 36 38 41 41 42 43 44 46 48 48 50 51 52 54 55 55 59 63 65 66 65 64 65 65 65 65 65
32 33 32 33 33 35 36 39 39 40 42 43 44 44 45 45 46 46 48 50 51 54 57 63 64 65 64 64 64 65 64 65
32 33 32 32 33 33 34 36 38 39 39 40 40 40 42 42 42 42 43 45 46 47 49 50 60 63 63 63 63 63 62 63
31 32 32 31 32 32 32 35 36 37 39 38 38 40 40 39 39 39 40 40 41 41 41 42 42 42 43 46 59 62 62 62
31 31 31 31 31 32 32 34 34 35 37 38 38 38 38 38 39 38 38 38 38 38 38 38 38 38 38 40 42 46 58 61
27 29 30 31 32 32 32 33 34 34 35 36 38 38 38 38 38 38 38 37 37 37 36 36 36 35 35 37 39 42 46 52
24 23 25 28 30 31 32 32 33 33 32 34 35 36 36 36 37 37 36 36 35 35 36 35 34 34 34 36 39 45 47 48
23 23 24 25 26 28 28 30 30 31 30 31 32 33 34 35 35 36 35 35 34 35 34 35 32 32 33 34 38 38 37 36
25 25 25 26 27 27 27 27 28 29 29 29 30 31 32 33 33 33 34 34 34 33 33 33 32 31 32 33 34 35 34 34
24 27 26 28 26 26 27 27 28 28 28 28 29 29 29 30 31 31 33 33 33 32 31 31 31 29 30 31 33 33 32 32

GFSFLT1_sfc_dewp_135.txt.gz
Dewpoint
29 30 31 31 32 35 36 38 40 41 43 45 48 54 57 63 67 67 67 68 68 67 67 67 67 66 66 66 64 64 63 63
29 30 30 30 31 32 35 36 38 39 41 42 45 47 54 57 62 65 67 67 67 67 67 66 67 65 66 66 64 63 62 62
29 29 30 29 29 31 33 34 37 38 40 42 45 48 52 55 57 61 67 67 66 66 67 67 67 66 65 65 65 62 62 62
28 28 29 29 29 29 32 34 36 38 40 42 45 48 50 53 55 60 63 65 67 65 65 67 65 65 65 65 65 64 62 62
29 28 28 29 27 29 32 33 35 37 41 42 44 45 45 49 52 55 58 64 66 66 65 66 66 64 63 64 64 63 62 60
29 28 29 28 28 30 31 33 35 36 41 43 44 46 50 50 54 57 61 63 65 66 65 65 65 64 63 62 62 62 62 62
29 29 29 29 31 31 32 34 34 36 38 43 44 47 49 51 54 58 60 62 63 65 66 65 65 64 63 63 63 63 63 62
29 29 29 30 31 33 33 34 34 35 37 42 44 46 47 53 55 58 57 56 56 55 61 60 62 65 64 63 64 64 64 63
29 29 30 30 31 33 34 33 33 34 36 40 44 44 46 50 49 49 51 55 52 51 50 55 53 53 64 64 64 65 64 63
29 29 30 31 32 33 33 33 33 33 36 40 42 43 44 45 45 45 45 45 48 48 46 46 48 48 49 58 63 62 63 63
28 29 30 32 32 33 33 33 33 33 34 38 39 42 43 43 42 41 42 42 42 42 43 42 43 44 45 48 50 51 57 60
28 28 30 32 31 33 32 32 32 32 33 36 38 40 40 40 39 38 38 39 39 39 39 38 39 41 44 45 46 47 49 50
27 29 29 30 30 31 32 32 31 32 33 34 35 38 37 37 36 37 37 36 36 36 36 36 37 38 41 42 42 42 42 42
27 27 28 30 30 31 31 31 32 32 33 33 34 35 35 34 34 35 35 35 33 33 34 34 34 35 37 38 38 38 38 38
24 26 28 29 29 29 30 31 32 32 33 33 33 34 33 33 32 32 33 33 32 31 31 32 32 33 35 35 35 35 35 35
22 24 26 27 28 29 29 29 30 31 31 31 32 32 32 31 32 31 31 31 31 30 29 30 30 31 32 35 34 33 33 32
22 23 25 24 25 26 28 30 29 29 27 28 31 30 31 31 31 30 30 29 29 29 27 27 27 28 31 33 33 32 32 31
24 24 26 25 26 26 26 28 27 29 29 26 27 28 28 30 29 29 29 29 27 26 26 25 25 26 28 29 31 31 30 30
25 24 24 25 25 26 26 26 27 25 27 26 25 26 26 27 27 27 27 28 27 26 24 24 23 24 27 27 27 28 29 29